GFSFLT1_700_spd_000.txt.gz
Wind_Speed
20 20 22 24 25 25 27 27 28 28 28 29 30 31 32 32 32 31 30 32 35 38 34 33 35 34 33 31 30 30 30 31
21 25 27 26 26 27 29 30 30 31 30 30 31 33 33 33 33 32 33 35 36 36 37 36 37 38 37 36 35 34 33 35
21 22 23 27 29 31 32 32 33 33 33 33 33 33 34 35 36 38 38 36 36 39 41 40 38 36 38 37 36 35 36 37
18 20 23 25 27 29 31 34 34 35 35 34 33 33 34 36 39 40 43 40 42 44 42 41 41 40 36 33 32 32 34 35
19 21 26 30 32 32 30 31 33 33 31 31 30 31 32 36 38 40 40 44 44 43 42 41 39 37 36 35 31 30 32 33
24 30 31 31 29 26 24 27 31 32 29 29 28 31 35 38 41 41 41 41 42 42 42 42 41 40 39 38 36 33 31 34
25 28 26 27 27 31 35 35 34 33 32 31 31 34 38 40 40 39 42 42 43 44 45 45 45 44 43 43 42 42 39 38
26 27 23 26 29 30 31 32 32 35 34 35 37 39 38 39 40 42 43 45 47 47 48 48 48 47 46 45 45 45 45 44
32 28 25 28 32 31 31 32 32 35 37 40 42 41 39 41 42 44 47 47 50 51 50 50 49 47 46 45 46 47 48 49
36 32 29 32 35 35 32 32 35 37 39 42 42 42 42 43 41 45 48 51 54 51 51 51 49 48 46 46 48 49 48 47
36 38 38 38 39 38 36 33 36 39 43 42 43 43 40 41 41 48 51 51 50 50 49 48 47 46 46 45 46 46 45 44
40 39 38 42 44 43 37 35 36 38 42 42 41 39 38 41 48 47 47 49 47 47 46 46 46 45 44 44 44 44 44 45
45 47 48 47 45 44 43 39 34 37 41 39 40 39 44 43 42 45 46 46 46 46 46 46 45 44 45 46 47 46 46 46
48 46 50 43 42 43 45 43 34 36 38 39 44 39 38 40 43 44 46 47 47 46 47 46 46 46 46 48 48 48 49 49
52 49 45 44 42 43 43 41 34 36 39 42 37 36 39 39 43 45 47 46 47 46 46 46 46 47 48 48 49 51 52 52
47 49 45 43 40 39 39 38 39 41 39 37 34 35 37 41 44 48 48 46 45 45 46 46 47 48 49 49 51 52 53 52
53 52 44 40 36 35 37 38 40 40 35 33 31 35 39 42 45 48 46 46 44 45 45 47 48 48 49 50 49 48 46 46
54 43 40 38 33 34 34 39 40 30 29 28 33 37 41 42 47 47 46 44 44 45 46 48 48 50 48 46 42 42 42 41
45 45 42 38 34 34 37 38 26 25 23 29 36 39 42 44 48 46 44 45 45 45 46 46 49 46 41 37 35 36 37 37

GFSFLT1_700_spd_003.txt.gz
Wind_Speed
20 22 24 24 26 30 33 32 33 32 34 34 36 36 37 38 38 39 35 35 34 33 36 37 38 38 38 37 34 35 37 35
20 25 24 27 33 32 33 35 36 35 35 36 38 38 39 37 38 38 36 35 36 35 36 38 39 39 40 40 38 37 38 40
18 19 20 22 26 28 30 31 35 33 36 36 36 37 38 37 38 40 36 36 36 37 40 38 39 40 40 41 39 36 37 38
17 22 24 24 26 32 35 37 36 35 30 36 35 34 34 37 37 38 39 41 40 40 41 39 40 38 37 36 37 37 35 36
24 25 28 32 34 37 33 30 28 30 31 30 36 34 35 29 21 26 33 36 39 38 36 37 38 37 37 37 32 35 36 35
24 28 31 33 35 33 32 31 33 35 39 39 35 36 34 34 35 39 41 39 40 41 42 42 43 42 41 40 40 38 36 36
21 21 25 26 29 28 31 31 31 35 36 39 35 37 36 37 40 44 43 41 43 43 46 47 48 50 49 47 44 43 43 41
18 21 22 20 27 32 35 35 36 34 40 39 39 41 41 42 43 46 42 41 42 45 47 48 51 53 52 50 49 47 45 44
21 22 22 23 26 31 35 41 43 38 38 43 42 45 46 45 47 50 46 44 47 46 48 51 55 55 53 51 49 48 46 46
24 24 22 23 27 32 41 44 45 41 37 44 46 48 47 47 54 49 48 49 46 48 52 55 54 54 52 50 48 48 47 46
25 24 24 29 40 38 38 41 41 39 38 46 47 51 50 48 51 46 46 45 48 50 52 51 50 48 47 46 46 45 43 42
24 26 28 33 38 41 37 38 39 39 43 48 47 50 48 50 48 45 45 48 49 48 47 48 48 47 45 45 44 42 41 41
26 29 37 37 34 42 44 45 42 43 46 44 48 47 49 50 46 47 47 43 44 46 48 50 49 47 46 45 43 42 42 44
32 35 38 36 42 47 46 45 43 44 41 44 47 47 49 43 46 42 40 42 45 48 51 51 48 47 46 44 45 45 47 47
38 38 38 50 43 44 44 45 44 41 41 43 45 45 42 45 39 38 39 43 47 49 51 49 48 46 46 46 47 49 49 50
40 51 53 47 46 44 45 44 44 40 40 42 42 42 43 36 36 37 42 46 48 52 51 47 44 46 46 48 49 49 52 54
45 49 52 47 43 44 43 41 39 37 39 43 43 36 32 32 36 41 45 48 51 49 46 45 46 46 47 47 47 51 52 50
52 49 47 47 47 44 40 32 29 30 39 41 29 29 30 35 41 45 47 50 49 46 45 46 47 45 44 46 47 49 47 44
52 52 49 46 42 41 35 35 34 40 39 28 26 28 32 39 42 45 48 46 46 45 46 46 43 43 44 46 44 42 41 39

GFSFLT1_700_spd_006.txt.gz
Wind_Speed
24 26 31 27 25 27 28 32 35 35 34 33 36 36 36 39 40 42 38 38 36 35 37 36 35 36 38 36 37 37 37 36
15 23 32 25 23 27 28 30 30 32 32 33 34 36 36 38 37 40 40 38 36 33 34 37 37 37 38 39 39 39 37 37
13 22 24 22 24 24 25 29 35 36 32 32 32 33 35 37 37 40 41 36 37 39 37 37 38 39 40 40 40 39 35 35
14 19 23 28 28 28 31 35 34 35 34 27 34 36 32 35 38 37 36 32 35 35 38 38 39 41 39 37 36 35 37 35
19 22 26 28 33 36 34 34 34 34 37 39 32 38 40 35 36 37 31 28 32 36 37 34 33 38 40 39 37 37 39 41
22 22 24 31 31 32 30 29 31 32 34 37 40 34 38 37 37 39 37 37 42 45 45 48 42 37 43 44 43 42 42 44
25 21 29 31 30 31 28 32 32 32 33 34 39 41 36 41 42 45 47 48 48 50 54 53 42 40 42 44 46 49 50 48
20 28 28 25 35 30 34 40 42 41 39 37 39 40 42 41 45 49 49 52 51 47 49 53 42 42 42 46 49 52 52 50
28 24 25 29 29 33 36 35 36 40 43 46 46 43 45 46 47 51 54 49 50 55 58 53 43 47 48 48 52 53 51 48
25 28 24 26 29 34 41 43 34 36 38 41 44 46 49 52 53 56 51 49 51 57 57 49 46 45 48 49 51 50 48 46
28 29 28 29 34 46 49 44 43 40 40 41 43 46 51 51 55 56 53 54 56 52 50 44 43 45 46 48 49 47 45 44
33 28 29 37 43 53 47 49 43 41 41 41 45 46 45 45 51 53 54 53 51 45 41 41 42 45 46 47 47 44 43 42
24 26 34 46 55 53 50 50 49 47 46 47 47 44 39 42 47 51 50 44 42 42 39 41 44 47 48 49 46 43 41 41
30 33 41 47 51 49 48 46 48 50 49 49 47 42 39 39 43 43 43 43 39 38 39 42 46 48 51 46 42 41 41 42
38 46 49 53 52 52 50 49 50 51 48 47 44 39 39 40 40 43 39 36 37 39 42 45 48 50 46 42 43 45 45 45
56 45 44 53 51 52 48 47 49 47 46 41 37 40 38 38 43 34 34 35 39 43 46 47 47 46 43 44 46 46 45 45
53 44 54 50 48 51 48 46 43 40 42 41 36 32 34 36 29 33 34 40 43 45 46 45 45 43 45 45 44 43 45 48
53 53 54 48 49 51 48 46 44 41 39 36 34 34 35 31 33 33 38 42 45 45 44 44 44 45 43 41 43 47 48 47
53 50 53 54 51 48 45 36 37 37 34 37 39 32 32 31 34 37 41 44 44 44 43 44 44 40 41 44 46 46 42 38

GFSFLT1_700_spd_009.txt.gz
Wind_Speed
13 14 21 27 31 30 27 27 26 28 28 30 34 34 34 35 36 35 30 29 30 33 35 35 36 37 39 36 36 36 36 37
23 19 18 25 29 27 27 28 27 30 32 30 28 29 28 29 30 34 38 35 31 30 34 38 38 37 36 37 38 39 41 41
14 16 23 26 26 26 26 27 29 30 28 27 29 30 31 32 32 33 36 37 37 36 33 35 38 36 35 37 37 38 36 39
16 16 18 21 22 33 35 32 29 30 32 32 32 34 35 32 34 35 37 38 35 33 35 34 35 38 40 40 38 34 34 32
23 25 28 25 32 38 27 30 28 32 35 36 35 33 34 35 34 35 38 41 42 40 37 38 39 41 44 47 44 44 39 35
25 28 23 30 34 36 29 31 31 32 33 34 36 38 35 33 35 38 41 43 43 39 41 44 43 38 38 41 53 41 40 40
27 29 30 31 35 34 32 35 42 43 38 33 32 36 38 39 38 39 40 44 46 48 50 48 45 45 53 57 35 46 46 44
29 32 32 27 32 34 35 35 42 47 41 39 39 42 44 46 47 46 44 45 49 52 50 54 56 56 59 50 59 59 45 42
29 26 29 31 35 37 40 39 40 46 41 38 40 41 46 49 52 49 50 50 52 56 58 59 61 61 62 56 51 42 40 41
26 32 31 33 36 37 36 39 48 49 44 37 35 38 43 43 46 49 53 56 58 59 62 59 58 54 50 44 41 40 39 42
36 38 39 36 40 42 39 49 48 49 46 44 47 45 46 43 44 48 55 56 57 59 54 47 45 45 42 35 36 38 42 44
30 29 31 33 35 43 56 48 48 50 50 51 46 45 46 43 41 43 47 48 49 46 40 41 42 37 34 35 38 41 43 44
34 35 37 39 44 56 52 51 52 51 50 50 53 52 45 40 37 39 43 41 37 39 41 37 33 34 36 39 42 44 43 41
41 41 45 51 54 50 49 52 51 48 54 54 54 49 41 39 36 35 34 33 36 34 34 34 36 37 40 41 42 41 40 39
47 47 52 46 49 49 51 48 50 52 54 53 50 42 40 36 37 33 34 34 30 33 34 35 37 39 39 40 40 40 41 42
53 55 50 48 49 48 50 51 51 52 47 48 50 45 39 38 39 35 32 30 32 34 37 39 39 38 39 39 42 44 44 43
46 46 51 49 49 50 51 52 50 44 41 44 45 39 40 41 34 30 27 29 34 38 39 39 39 39 40 42 42 42 43 44
50 50 48 48 50 51 50 49 45 42 35 37 35 35 39 31 34 32 31 35 37 38 37 38 38 40 40 39 40 44 46 47
51 48 48 51 49 48 49 46 41 35 30 28 29 30 30 30 30 32 34 36 36 35 36 37 39 37 38 40 42 44 46 41

GFSFLT1_700_spd_012.txt.gz
Wind_Speed
15 11 13 16 20 23 26 30 32 30 29 30 27 25 26 27 25 21 21 23 26 29 30 31 33 34 33 33 35 36 35 35
16 17 15 16 20 24 23 29 27 27 26 26 28 28 28 28 28 28 27 24 24 26 30 32 32 33 35 34 34 34 33 36
11 7 10 14 17 17 22 29 25 26 26 28 31 31 31 30 29 31 32 32 31 32 33 34 35 37 38 36 36 36 38 38
10 12 13 17 17 16 28 33 29 29 30 32 35 34 33 32 32 33 34 36 37 38 38 39 36 39 41 39 41 43 44 44
15 22 30 28 22 27 34 36 30 30 35 37 39 39 38 34 35 35 35 38 40 40 42 43 42 43 43 46 47 46 46 47
25 26 26 27 29 33 36 39 36 33 36 40 43 43 41 39 36 37 39 41 42 42 43 46 48 47 47 50 50 52 47 46
20 25 27 29 37 38 41 39 37 33 32 41 45 39 41 39 37 38 39 44 47 47 44 47 50 52 54 54 54 53 50 50
28 28 33 34 36 42 40 38 32 32 34 46 39 39 39 38 39 41 41 47 51 48 48 52 53 56 58 58 57 62 57 59
26 30 32 37 41 31 26 32 32 35 50 45 42 41 39 41 42 43 45 42 47 51 54 56 57 57 56 60 63 61 55 53
25 34 38 35 29 30 30 36 41 49 57 50 45 44 39 38 41 44 45 42 40 47 53 58 59 56 52 44 46 45 48 50
35 39 40 42 45 42 43 46 53 54 49 49 49 45 43 45 47 46 41 35 37 46 49 52 53 42 43 41 41 42 42 42
35 39 37 35 38 44 49 54 51 49 49 49 49 51 52 50 45 36 33 33 35 39 38 38 37 40 41 38 37 37 39 41
38 37 39 40 47 55 51 48 48 49 49 50 52 53 52 45 37 36 35 34 35 38 36 35 36 35 37 37 38 39 40 42
34 37 47 49 50 46 49 49 48 50 53 53 53 52 48 43 40 35 32 31 29 32 34 35 36 36 37 38 40 41 41 42
39 49 50 42 46 46 46 48 50 52 52 51 50 49 40 42 40 34 33 34 31 30 32 34 36 37 38 39 40 40 40 41
47 49 45 47 49 46 47 50 51 50 49 48 44 42 40 43 40 38 37 29 26 28 32 34 36 38 38 39 39 41 43 43
44 41 50 46 44 48 47 48 49 50 49 43 36 32 34 39 35 32 33 33 31 31 34 36 37 37 38 39 42 43 43 43
41 40 43 44 46 48 50 51 49 47 41 32 25 21 26 31 33 33 32 33 33 35 36 35 36 37 38 40 41 42 43 44
36 40 45 45 49 50 51 50 47 40 30 23 22 22 24 27 30 32 34 35 35 35 35 35 36 37 38 39 40 42 43 43

GFSFLT1_700_spd_018.txt.gz
Wind_Speed
12 13 13 13 13 13 15 19 20 22 26 27 25 25 25 27 30 29 29 29 30 31 31 31 31 32 32 34 35 36 34 33
13 15 10 10 12 15 18 23 25 24 31 29 27 24 27 27 31 31 31 31 31 32 32 33 33 33 32 32 33 34 34 34
6 7 5 6 9 11 16 19 20 25 28 28 27 27 27 27 32 31 35 33 34 35 36 35 37 38 38 38 38 39 39 37
6 9 13 17 18 18 16 17 24 27 29 30 31 31 35 36 37 38 43 36 37 40 41 41 40 42 43 42 42 43 44 43
12 15 18 20 20 21 22 25 27 28 29 31 33 36 40 41 44 48 47 44 41 41 43 46 45 45 46 44 43 46 47 49
15 17 20 23 23 22 24 27 29 31 33 34 35 38 42 47 51 50 48 44 44 45 47 50 51 50 50 48 46 48 52 55
16 18 21 21 22 22 26 28 30 33 35 36 38 44 49 51 46 47 49 49 48 47 47 49 52 52 52 53 52 53 55 59
18 20 20 23 26 28 29 31 33 33 33 37 44 47 44 46 47 49 48 49 50 51 51 52 53 55 55 53 51 52 56 62
18 19 21 25 28 29 30 32 33 36 40 42 43 44 47 49 48 48 48 50 51 51 52 52 50 47 45 43 42 47 60 56
17 17 21 26 28 30 33 37 42 47 52 54 53 51 49 45 46 49 52 52 50 49 47 45 42 37 34 31 40 49 56 46
17 20 25 32 38 43 48 50 51 50 48 48 45 43 45 48 50 52 53 54 53 43 35 32 30 28 27 34 40 47 42 42
29 32 37 45 50 51 53 53 50 49 45 42 43 47 51 55 56 54 54 52 43 34 30 32 32 26 30 34 36 38 41 39
34 39 43 49 49 51 47 43 43 42 40 43 50 53 53 54 57 57 53 43 36 33 35 34 31 31 32 32 33 35 38 40
40 43 47 47 45 42 42 42 41 42 46 51 52 54 57 57 54 48 41 35 34 37 38 33 30 30 30 33 34 36 39 42
46 48 47 46 44 42 42 40 42 46 50 54 56 57 56 51 43 36 32 30 33 33 32 31 30 32 32 34 35 37 40 41
47 48 45 50 42 38 41 44 48 52 55 58 57 57 50 40 33 31 26 26 28 29 29 36 30 30 32 35 37 40 41 40
46 46 54 44 38 44 47 47 49 54 58 57 54 44 34 33 29 29 33 34 33 35 35 35 35 36 36 38 40 42 43 43
50 48 37 41 43 45 48 50 53 55 55 49 34 34 30 30 28 29 29 31 33 34 35 35 35 36 38 40 42 43 42 40
44 38 42 41 43 46 50 51 51 50 44 34 31 29 32 31 31 33 34 33 35 35 35 35 36 36 39 40 41 40 38 37

GFSFLT1_700_spd_021.txt.gz
Wind_Speed
12 12 12 12 14 13 14 16 20 21 23 24 26 26 24 25 28 28 29 29 30 33 33 33 34 34 32 32 33 33 34 34
8 10 12 11 10 10 13 14 17 18 21 24 26 23 22 25 26 29 31 33 33 38 35 33 36 38 37 38 37 37 38 36
1 5 8 5 8 6 9 12 15 18 22 25 26 26 25 25 26 30 31 37 39 42 40 39 37 38 40 40 42 44 43 40
3 6 9 12 14 14 13 13 17 22 25 27 29 31 32 33 34 37 39 42 40 41 41 41 42 44 45 44 44 46 49 47
8 11 14 15 15 14 14 18 21 25 29 33 35 36 37 37 41 46 46 42 42 44 46 44 45 46 47 48 48 47 48 51
13 14 16 15 18 20 21 23 26 29 33 36 38 39 41 42 45 46 44 46 48 49 46 45 46 47 49 51 51 52 50 50
17 18 18 21 23 25 26 28 31 33 36 39 44 47 46 46 47 46 46 46 43 44 47 48 49 50 50 52 54 56 56 53
14 17 20 24 28 29 32 34 34 40 45 48 46 46 46 44 44 43 44 45 48 50 51 51 50 51 52 51 49 49 50 49
18 18 20 23 25 29 32 37 40 42 44 46 43 41 40 40 40 42 46 50 52 55 56 55 55 53 50 44 40 38 38 35
23 22 22 23 27 31 34 41 43 46 43 40 40 41 41 42 45 51 54 52 54 56 57 56 53 46 39 34 30 25 31 36
24 22 25 29 35 42 46 48 48 45 43 43 44 43 44 48 52 52 54 56 57 57 51 44 37 31 32 32 30 33 34 36
29 32 36 41 46 49 50 50 47 42 40 41 42 47 50 52 53 55 56 55 50 41 32 28 29 32 33 30 31 32 33 33
36 38 40 42 44 45 44 42 39 38 38 44 46 48 52 55 58 58 53 44 35 30 27 32 33 32 33 32 32 33 33 33
38 38 40 39 38 42 41 36 35 40 43 46 49 53 56 59 57 49 36 31 27 26 31 33 34 34 33 34 33 32 32 32
41 43 44 44 43 38 36 37 39 42 45 50 53 56 56 52 40 33 30 29 28 27 29 32 34 35 35 30 29 30 32 33
46 46 47 45 37 35 35 39 42 46 50 53 54 53 46 36 33 32 31 31 31 33 32 32 31 29 29 30 31 33 35 37
47 45 45 37 36 37 41 43 45 48 51 51 48 37 30 30 23 32 31 31 34 34 32 31 31 31 32 33 35 37 37 38
48 43 35 35 37 40 43 44 46 48 48 44 37 32 31 28 33 34 33 34 34 33 33 32 31 32 34 35 36 37 38 36
38 40 33 33 37 39 42 44 46 45 42 37 33 33 32 32 33 34 35 34 33 33 32 32 33 34 36 36 36 36 36 35

GFSFLT1_700_spd_024.txt.gz
Wind_Speed
17 16 14 14 15 15 15 15 16 19 21 22 21 22 23 23 24 27 26 28 28 30 32 32 34 34 33 35 37 37 38 36
14 15 17 17 17 16 16 16 19 20 22 20 21 22 23 24 25 27 27 29 33 36 38 38 37 37 36 35 38 40 40 41
11 11 10 10 10 12 15 18 21 21 21 23 25 26 28 30 32 33 35 36 37 42 44 41 40 42 44 42 41 43 44 43
9 9 10 13 15 18 19 19 20 22 24 28 31 34 35 36 36 36 37 40 43 47 44 43 45 46 46 43 43 44 46 45
9 11 13 16 18 19 19 20 23 26 30 34 37 38 38 42 47 47 46 46 48 46 42 45 46 44 45 46 48 49 51 53
10 13 16 18 19 20 23 27 29 31 35 38 42 42 44 51 53 51 47 46 44 43 43 42 43 46 48 49 51 54 56 56
15 17 19 22 24 25 27 30 32 35 38 42 43 51 47 47 50 45 44 42 39 39 45 48 50 51 53 54 56 56 55 55
21 19 19 23 26 27 29 30 33 37 40 44 49 49 49 46 43 43 42 41 43 49 52 53 53 55 57 59 58 56 53 49
24 26 26 26 26 28 30 33 37 42 45 48 48 44 40 39 39 40 44 48 52 54 55 56 57 57 58 55 48 44 41 40
27 22 21 23 26 30 33 38 41 42 43 42 41 39 37 39 42 44 47 51 54 56 57 55 51 47 42 36 34 34 33 31
22 19 23 26 29 33 38 40 40 42 42 40 36 36 41 44 47 50 54 57 58 54 45 39 35 29 28 32 34 32 29 28
25 26 30 33 35 37 40 41 40 37 35 35 37 41 45 49 53 56 57 54 45 36 32 29 26 29 33 31 30 27 28 29
31 33 36 39 38 40 36 37 37 33 35 38 42 46 49 52 53 52 45 37 32 28 28 26 29 33 36 38 38 36 34 33
34 40 42 44 43 37 34 34 32 34 38 41 46 50 52 52 50 43 36 33 30 30 28 26 29 32 35 35 34 32 31 31
39 43 44 39 36 34 34 34 33 37 41 44 48 50 51 47 41 34 32 21 23 23 25 30 32 34 33 31 30 31 31 31
45 47 41 35 35 37 35 35 38 39 42 45 47 47 41 34 29 28 24 29 27 28 35 35 32 31 32 30 30 31 32 33
53 43 37 32 35 32 32 33 37 40 42 44 43 39 33 31 29 29 31 34 36 37 36 33 31 31 31 32 33 34 35 35
44 29 30 30 29 30 33 35 38 40 41 41 39 36 33 31 32 33 33 35 35 33 32 32 31 32 34 35 36 36 36 35
34 31 30 26 28 32 35 37 38 40 39 37 36 35 34 34 33 34 34 32 32 31 32 33 34 35 36 36 36 36 35 33

GFSFLT1_700_spd_027.txt.gz
Wind_Speed
15 15 14 16 21 20 20 21 25 25 25 25 26 26 25 25 25 27 29 30 32 33 33 34 36 37 35 35 36 37 40 41
27 24 24 22 22 23 25 26 27 24 26 27 27 26 27 29 32 36 36 37 37 39 41 41 41 44 46 43 42 44 43 42
19 20 21 21 18 16 15 19 21 23 28 29 29 30 32 35 37 41 42 44 44 45 45 45 48 50 49 44 44 45 42 41
14 13 12 13 14 15 19 22 24 25 27 31 32 33 37 39 42 42 42 46 48 51 53 49 48 45 43 42 41 42 46 44
11 12 13 14 17 22 25 27 29 29 30 34 35 37 41 44 45 48 51 47 48 47 45 46 44 41 42 44 47 50 52 53
12 14 16 19 22 25 27 30 32 33 34 36 39 42 44 46 49 54 55 54 48 45 43 41 42 43 48 52 55 57 57 57
15 18 21 26 26 24 27 28 31 34 35 37 40 45 48 51 55 53 48 44 40 40 43 46 49 52 55 57 58 58 58 58
17 23 26 31 32 29 26 28 30 36 39 42 46 50 49 46 44 42 39 40 43 46 49 51 55 58 60 61 60 57 53 52
24 25 29 30 27 25 24 26 30 33 38 41 40 40 42 40 39 39 43 47 49 52 56 59 61 61 55 48 45 45 39 36
25 29 30 30 28 27 27 29 35 34 34 34 37 37 37 38 38 41 46 50 54 57 58 56 49 42 40 37 34 35 37 37
20 25 27 30 32 35 39 43 42 37 35 37 39 37 36 38 43 48 51 53 55 53 48 40 36 34 34 32 31 33 30 28
18 20 23 25 25 33 41 40 37 35 37 35 36 37 41 46 49 52 51 53 51 43 37 33 32 33 33 32 33 35 37 38
19 21 22 24 33 41 40 35 33 35 34 35 38 42 44 47 49 51 49 44 40 37 32 27 25 24 31 34 36 38 36 34
21 24 27 30 39 44 37 34 36 34 34 37 38 41 43 45 46 45 42 37 31 25 26 29 32 34 37 39 37 31 33 34
26 28 31 41 43 42 33 35 34 34 34 38 41 43 44 43 43 41 32 32 29 27 33 37 37 39 38 30 29 32 33 33
32 41 49 43 36 31 34 33 33 36 37 40 44 44 43 42 38 29 29 32 33 34 35 38 35 33 29 34 31 33 33 34
43 50 41 37 30 28 30 33 35 39 40 43 45 43 41 40 37 35 34 32 33 34 34 33 31 28 34 35 34 37 37 36
48 45 33 28 30 30 32 35 38 42 45 45 45 41 39 37 36 35 32 30 32 33 32 31 31 32 37 36 35 36 36 36
43 30 33 32 29 30 36 39 42 44 40 41 41 39 37 35 32 27 29 32 33 33 32 33 34 32 36 35 34 35 35 35

GFSFLT1_700_spd_030.txt.gz
Wind_Speed
16 19 22 24 23 24 24 23 23 27 28 29 29 31 32 32 32 32 36 38 40 38 38 38 39 44 46 44 45 46 46 46
28 26 29 33 28 25 22 26 27 28 26 28 29 32 33 31 33 37 39 42 42 45 48 51 46 45 46 46 49 49 48 46
29 30 29 24 21 22 21 19 17 20 25 28 29 31 32 33 36 41 44 47 48 47 51 52 50 48 45 43 43 44 44 41
23 23 19 14 13 15 17 21 24 24 28 32 31 32 35 37 38 41 44 46 48 53 54 52 50 47 45 41 40 41 45 44
9 9 11 13 15 17 22 27 29 29 29 33 35 35 37 38 40 43 47 48 53 53 51 50 49 47 46 44 46 48 50 52
10 14 17 17 19 22 25 28 31 34 31 30 33 36 37 40 44 48 50 50 47 47 48 45 45 47 49 51 54 56 57 59
15 17 19 24 25 28 28 30 29 31 35 32 34 35 38 41 43 44 45 45 44 42 42 45 48 51 53 55 58 59 59 57
11 16 20 23 26 30 32 32 29 30 31 36 41 43 41 40 39 40 41 41 40 42 45 50 54 56 57 56 53 49 47 45
10 14 21 26 28 29 30 30 30 35 40 41 41 38 36 37 38 39 39 42 47 51 53 55 55 54 52 47 40 41 39 38
13 14 19 29 30 28 32 30 34 40 39 39 37 37 38 38 38 41 44 47 49 51 52 53 50 46 42 38 36 35 35 35
12 21 25 29 33 33 38 42 45 45 42 38 36 37 36 37 41 43 44 47 49 50 50 48 44 40 36 34 32 32 33 32
18 25 31 29 36 37 37 45 52 45 38 36 37 37 38 39 40 44 47 49 47 47 45 40 32 28 28 27 34 35 34 37
18 22 24 36 36 41 40 46 51 39 36 38 38 40 40 41 43 46 47 48 47 45 34 33 32 33 33 38 41 39 38 32
21 23 33 30 37 45 50 53 43 34 35 38 38 42 42 43 47 48 46 45 43 36 35 35 34 39 45 43 40 35 38 32
26 29 36 45 46 50 49 44 34 38 36 39 41 44 44 47 47 45 42 40 35 34 35 34 35 37 37 37 36 34 34 34
39 44 49 47 51 48 39 36 36 33 35 39 41 48 46 47 44 42 40 38 37 34 32 33 33 33 33 33 36 36 35 36
39 41 41 45 40 34 36 34 36 35 37 40 40 41 50 48 40 35 35 34 33 34 35 32 32 32 35 38 36 33 33 35
33 39 41 37 30 28 35 36 36 43 42 37 30 40 48 45 38 33 36 35 36 36 33 33 33 32 34 36 34 34 36 36
39 37 36 32 30 38 39 28 36 48 47 42 41 44 44 44 40 36 36 36 36 36 33 31 29 29 34 36 36 36 37 38

GFSFLT1_700_spd_036.txt.gz
Wind_Speed
24 23 21 20 20 17 20 19 20 20 22 23 25 23 26 28 30 30 33 34 37 39 39 40 39 42 43 45 47 47 47 47
27 30 26 21 22 19 18 20 24 27 25 23 21 24 28 29 32 34 35 35 38 39 41 44 45 47 48 49 48 45 42 44
25 30 25 22 24 24 26 30 28 21 18 21 23 25 26 27 30 32 36 39 40 42 44 46 47 48 47 45 44 45 44 44
19 22 25 27 29 28 23 21 20 21 23 26 27 27 29 30 33 36 37 38 40 42 45 46 46 45 45 44 43 43 44 46
18 23 28 26 19 18 19 21 24 28 30 28 25 24 24 27 31 35 40 42 43 43 43 43 44 45 46 45 46 48 50 51
17 19 16 14 18 22 25 26 29 29 28 28 29 33 39 41 40 39 40 42 42 42 44 45 45 45 46 48 49 50 51 52
13 11 11 11 16 20 21 25 25 26 28 29 30 36 42 44 45 44 42 40 40 41 41 43 45 46 46 48 50 50 51 50
12 14 14 21 26 19 23 27 32 34 36 39 44 46 49 51 50 45 40 39 40 41 44 44 44 47 48 50 51 48 45 44
17 18 21 25 30 31 31 35 36 39 43 44 51 50 51 50 44 40 41 43 45 47 47 46 47 50 52 50 46 43 39 35
13 16 19 21 26 30 33 38 42 41 45 40 52 55 50 45 39 39 43 47 48 48 50 50 52 52 50 45 41 35 34 34
13 15 19 25 32 33 36 40 43 44 45 51 53 50 45 40 41 42 42 45 48 50 52 52 50 46 43 41 38 35 35 35
15 22 25 28 31 35 38 43 50 49 45 50 46 41 40 39 36 40 43 44 46 45 47 44 42 43 41 38 38 36 37 38
25 21 26 29 35 38 43 49 45 44 45 48 42 39 43 45 41 52 44 39 38 39 35 34 36 38 39 36 35 36 37 37
19 23 26 30 37 44 44 43 45 46 45 41 42 43 45 43 47 51 41 44 44 40 37 35 34 34 34 34 36 36 34 34
24 26 32 40 44 45 42 42 43 41 42 43 44 46 49 49 43 47 46 47 46 45 38 33 31 32 36 38 36 34 32 32
27 35 42 48 46 42 40 39 39 41 43 45 44 49 47 45 51 43 45 46 50 47 31 31 31 33 40 37 32 30 31 33
39 43 44 41 42 41 40 41 42 41 40 47 45 50 53 50 46 47 53 54 40 27 25 30 33 37 37 33 32 31 33 35
40 41 39 40 38 40 41 40 39 42 46 49 53 53 44 43 44 51 51 33 21 29 31 32 33 34 33 32 32 33 36 38
39 37 36 36 38 38 39 42 45 46 47 46 43 37 39 44 47 45 34 25 30 26 30 31 32 30 32 32 32 35 37 39

GFSFLT1_700_spd_039.txt.gz
Wind_Speed
19 18 17 17 18 19 22 21 19 18 18 19 25 24 23 25 27 28 31 33 36 35 40 40 37 39 46 48 50 51 54 55
25 25 24 22 21 20 21 21 21 23 24 26 24 23 24 24 26 27 30 33 34 37 39 46 46 47 49 51 53 55 54 53
26 25 24 25 19 19 23 27 27 26 20 21 22 22 23 22 24 27 29 33 36 39 41 44 47 49 52 54 53 51 49 49
21 17 19 21 23 23 21 20 18 18 19 20 21 22 23 23 24 29 32 36 40 42 44 46 47 47 47 48 48 48 48 46
11 13 14 16 11 11 13 16 19 21 21 19 19 19 22 28 32 35 37 40 40 41 44 45 45 46 48 48 47 47 47 48
12 12 14 9 8 12 18 20 19 19 21 25 26 31 34 38 41 42 46 47 43 41 42 44 46 48 49 50 51 51 51 52
9 9 9 10 11 20 18 17 21 26 33 34 37 40 44 46 48 47 47 45 42 42 44 46 47 50 52 53 53 53 54 54
5 13 14 18 24 25 26 29 33 32 38 40 41 46 50 50 49 49 48 44 42 43 46 49 50 49 51 52 52 52 50 47
19 21 20 20 26 29 31 34 35 38 41 43 49 52 49 50 49 48 43 41 43 44 45 48 51 52 53 54 50 43 43 42
15 16 17 23 24 27 29 32 38 43 44 48 50 48 48 47 44 41 41 43 41 43 49 52 51 51 47 39 36 37 40 41
15 20 21 19 25 27 30 34 39 43 48 46 46 48 47 44 40 42 42 44 49 51 45 44 46 41 37 34 33 36 39 40
19 26 23 30 25 28 31 38 44 46 43 44 45 44 42 42 46 47 46 45 47 45 45 44 43 41 39 35 34 37 40 41
23 23 26 22 29 31 35 41 41 41 41 42 42 45 47 45 45 48 50 48 49 47 40 46 42 44 35 34 35 37 40 40
21 21 22 23 28 34 43 41 42 41 42 45 46 45 47 49 49 50 49 47 43 41 45 45 48 37 27 30 34 39 38 33
20 23 26 31 38 41 40 41 41 42 44 46 47 48 49 51 51 52 46 41 41 48 48 39 29 24 28 32 37 37 31 32
27 31 32 36 42 42 41 41 43 44 45 46 46 47 49 51 46 38 39 41 44 48 34 23 19 25 33 36 37 32 31 32
32 34 37 41 43 42 42 43 44 45 45 45 46 46 47 46 43 42 44 44 44 39 33 21 23 29 34 36 33 31 32 34
36 40 42 39 41 42 42 44 45 43 43 45 46 47 46 45 43 42 40 36 32 28 32 23 24 29 35 33 31 32 35 37
42 40 35 35 39 41 42 43 44 43 43 44 44 44 43 40 39 36 35 29 24 25 25 23 25 32 32 30 31 33 35 37

GFSFLT1_700_spd_042.txt.gz
Wind_Speed
15 15 15 16 17 21 23 26 28 26 22 24 18 18 19 18 21 22 24 23 28 30 33 35 38 45 47 50 49 51 54 56
21 21 21 22 22 24 23 23 23 21 24 18 15 13 15 18 22 25 27 27 29 31 35 39 43 47 50 53 55 57 58 58
18 21 22 22 24 21 15 18 20 15 15 17 19 21 22 23 23 23 25 28 29 31 35 39 43 47 50 52 53 53 53 53
10 8 10 11 14 15 10 10 12 14 16 16 16 17 20 22 25 28 32 35 37 40 42 45 44 44 46 47 48 50 51 50
3 3 11 9 5 6 8 12 13 11 13 17 21 25 28 32 38 43 45 45 44 43 46 46 45 44 45 46 47 48 50 51
3 3 4 9 5 4 11 13 13 18 22 24 31 34 37 41 46 47 46 47 47 49 48 46 45 46 49 51 53 54 55 55
2 4 5 7 13 22 26 27 23 25 27 31 34 37 40 46 47 46 48 48 49 48 47 47 48 50 50 50 50 52 54 54
9 11 14 22 33 28 25 23 22 26 29 34 40 42 46 48 46 48 48 47 45 45 46 47 47 48 50 49 48 45 42 35
20 25 29 25 18 18 26 28 28 29 32 38 42 46 48 48 48 47 47 46 46 47 45 46 47 47 46 45 41 38 36 34
16 23 19 20 24 25 25 29 30 31 35 41 46 46 47 48 47 46 46 44 46 47 48 48 47 48 45 41 39 38 35 34
20 20 19 24 25 27 31 26 30 33 39 46 44 46 46 45 45 45 46 48 48 49 51 49 47 41 39 42 36 42 35 35
22 23 25 27 27 29 30 32 34 39 40 41 42 44 46 47 49 49 51 51 52 50 43 41 39 41 42 36 39 31 31 34
24 25 25 26 28 31 31 31 38 36 39 41 44 46 48 49 50 51 53 54 48 42 40 39 43 46 43 29 25 28 32 35
25 27 29 29 29 33 35 38 38 38 40 44 45 47 47 48 50 52 51 50 48 43 42 43 42 38 24 23 26 31 35 39
27 27 28 30 34 37 37 37 37 40 42 45 46 47 47 48 49 49 48 45 44 43 40 37 31 28 23 22 26 33 37 35
24 27 30 34 38 39 39 39 40 42 44 45 46 46 46 47 47 47 44 41 37 38 34 30 28 25 22 28 31 36 35 32
27 31 36 38 39 40 38 39 41 43 45 45 45 45 46 46 45 42 40 37 37 34 29 26 23 24 23 29 32 32 31 33
31 32 36 39 37 36 38 40 42 44 44 43 43 44 45 44 42 40 40 34 34 26 24 26 28 25 25 28 28 30 32 34
33 36 37 36 35 36 38 41 43 44 43 42 43 43 43 42 41 40 37 31 28 24 23 25 25 26 27 26 27 30 32 33

GFSFLT1_700_spd_045.txt.gz
Wind_Speed
12 13 14 16 17 20 22 26 31 30 30 14 15 8 7 11 15 19 23 26 27 28 30 33 36 37 40 43 45 48 50 52
17 17 20 21 23 25 26 28 23 19 8 5 5 7 8 11 14 18 21 24 27 31 35 37 39 40 41 42 44 46 47 50
17 14 10 10 14 16 18 20 9 10 7 10 11 12 13 15 17 20 23 28 33 36 34 35 37 40 42 43 44 46 48 50
8 6 5 5 9 12 5 4 6 7 8 10 11 14 17 20 25 29 34 37 38 39 40 40 42 42 42 42 43 45 47 48
6 6 5 4 3 4 3 9 11 12 12 12 16 19 24 29 34 38 40 40 42 43 44 44 44 44 45 45 46 48 48 49
8 6 6 6 3 3 13 15 17 20 19 19 23 27 31 36 41 42 42 43 44 43 44 45 46 47 49 48 47 47 48 47
7 5 5 7 9 14 24 28 23 21 23 23 27 32 34 40 42 42 43 43 43 44 45 46 49 49 48 46 46 46 44 40
8 9 13 16 18 18 16 18 20 22 30 28 31 34 38 42 41 41 42 43 44 45 47 48 48 47 48 47 46 45 43 40
12 14 12 15 13 16 20 24 27 27 28 30 36 39 42 40 40 41 43 45 46 46 47 47 48 49 48 46 43 40 39 37
12 14 16 17 19 20 26 23 30 29 31 32 37 40 40 41 43 46 46 46 47 48 49 50 49 47 44 40 37 37 28 29
14 17 20 19 21 24 26 27 31 28 32 38 39 39 41 44 44 46 48 49 49 50 49 47 45 41 38 39 39 32 26 27
17 20 21 22 25 26 28 31 35 35 44 39 37 40 42 43 46 48 48 48 48 48 47 44 41 38 36 37 34 27 26 26
21 23 23 26 28 29 31 35 38 41 38 38 39 40 42 44 45 44 45 47 47 47 45 41 38 34 35 33 28 27 26 29
24 24 27 30 31 31 36 35 37 37 36 35 38 40 41 42 44 44 45 46 44 41 40 36 35 32 31 27 27 28 28 32
25 28 28 28 29 33 35 35 35 33 34 37 40 42 43 43 44 44 45 43 42 40 35 34 30 25 24 25 23 27 32 35
27 26 24 28 31 34 32 33 32 34 37 40 42 42 42 43 43 43 42 42 41 38 32 30 24 22 22 26 27 28 31 33
24 24 28 31 36 35 31 31 34 36 39 41 42 42 41 41 42 42 42 42 39 34 29 26 23 24 23 23 25 28 26 29
24 26 33 37 35 31 30 32 35 38 40 41 41 41 41 42 42 42 42 42 38 32 29 28 26 26 26 26 24 25 27 29
26 31 33 38 33 30 31 33 36 39 41 41 41 42 42 42 41 42 42 41 35 32 30 28 27 27 26 22 23 25 27 30

GFSFLT1_700_spd_048.txt.gz
Wind_Speed
16 16 17 18 18 19 22 24 26 29 28 28 19 10 6 9 11 14 18 20 22 25 29 33 37 40 40 40 41 42 44 46
14 15 17 19 21 23 25 26 26 20 13 12 3 2 7 8 9 13 16 20 23 28 32 33 33 36 36 38 40 41 41 44
14 17 18 20 20 21 20 19 13 8 6 2 3 5 8 10 12 15 18 23 27 29 32 35 35 36 37 38 39 41 43 46
17 15 14 12 11 12 12 8 6 4 4 7 9 9 11 12 17 21 26 30 32 34 37 38 39 38 40 42 43 44 45 44
14 13 14 11 8 7 6 5 9 13 19 21 16 13 16 20 25 30 36 37 39 40 41 41 41 42 43 44 45 45 46 44
14 12 10 9 10 10 11 13 17 24 20 14 17 20 22 26 31 36 39 41 40 42 42 42 43 43 44 44 44 44 43 44
13 12 10 6 8 14 18 19 17 12 16 18 22 24 26 33 35 39 40 40 42 43 42 42 42 43 44 44 44 43 38 30
11 8 6 9 10 10 10 13 15 19 22 24 25 28 31 35 39 40 39 41 41 42 43 44 44 45 45 37 35 25 27 32
11 9 8 10 10 13 15 16 20 21 26 29 32 36 35 39 39 38 41 42 43 43 43 44 45 41 30 29 31 33 33 33
12 9 11 13 14 15 18 22 23 25 28 32 35 35 41 39 40 41 43 44 44 45 45 46 45 33 29 31 31 34 34 32
14 12 13 16 19 20 21 23 24 28 34 37 37 37 38 38 40 42 43 43 43 44 44 45 43 36 28 31 34 33 32 31
17 17 18 22 23 23 25 26 30 36 40 34 37 35 35 39 41 43 43 43 43 43 43 42 41 37 28 29 32 35 31 27
22 25 25 25 26 28 30 31 34 40 35 33 32 35 38 40 41 42 43 42 41 41 41 40 39 35 29 34 30 30 27 28
25 28 29 29 29 31 34 31 36 37 34 32 33 36 38 40 42 42 41 41 41 40 41 40 38 32 30 25 25 25 25 26
29 30 30 29 30 31 32 35 36 35 33 32 33 36 39 42 41 41 41 41 40 40 41 39 33 28 25 22 23 24 27 29
27 28 28 28 30 32 33 37 39 34 31 32 35 38 40 41 41 41 40 40 40 40 40 36 30 28 27 25 25 24 25 28
24 27 27 27 30 32 37 35 33 30 31 33 37 39 40 40 40 40 40 41 41 41 38 34 31 30 28 27 25 25 24 25
23 25 25 29 31 33 35 31 29 30 32 35 38 39 40 40 40 41 40 41 40 39 37 34 31 31 28 25 24 22 22 25
22 24 27 31 33 33 31 28 29 30 34 37 39 39 40 40 41 40 39 39 39 37 35 33 31 30 25 23 20 20 22 25

GFSFLT1_700_spd_051.txt.gz
Wind_Speed
20 21 21 20 22 22 20 21 21 23 26 29 22 13 23 23 10 16 18 18 20 22 27 29 32 34 35 39 38 38 39 41
19 20 21 21 22 25 22 23 25 24 23 14 11 3 4 6 10 12 15 19 19 22 29 32 33 35 38 39 38 39 40 41
19 20 20 22 24 27 27 26 20 15 11 9 6 5 7 9 11 14 15 19 22 27 28 31 33 33 37 37 37 39 40 42
18 17 20 21 20 18 15 12 10 6 4 7 13 14 11 12 15 20 21 25 29 32 33 33 37 39 39 42 42 43 42 43
19 19 18 16 14 13 11 10 10 10 12 16 11 10 8 15 20 24 29 30 35 36 37 39 40 41 42 43 42 42 43 42
18 17 16 16 12 9 9 13 16 20 20 13 12 15 17 22 24 28 34 37 42 42 42 42 42 42 42 41 41 41 39 39
17 17 16 11 10 11 16 19 16 12 14 16 18 22 24 24 27 31 37 38 39 42 43 44 44 43 40 38 38 36 38 32
18 15 12 12 13 14 15 15 14 14 17 19 21 24 27 31 33 33 36 37 38 40 42 42 41 41 40 39 32 31 34 32
17 15 14 14 14 14 14 16 18 20 21 24 27 29 30 34 38 36 35 36 38 41 43 44 43 41 40 38 32 31 35 36
18 18 16 15 16 16 17 20 22 23 24 28 32 33 38 37 36 33 35 38 41 43 43 43 42 41 40 37 37 29 35 37
19 19 18 17 18 19 20 23 27 26 31 32 34 41 35 33 33 34 37 40 42 43 43 42 41 39 38 36 33 28 32 34
19 19 22 21 22 23 23 27 30 32 34 38 36 39 35 34 35 36 39 41 42 42 42 41 40 39 39 34 30 30 36 36
21 26 26 26 28 29 29 31 32 40 44 33 40 37 34 34 37 38 40 41 41 41 41 41 40 39 37 35 31 30 28 28
25 27 28 29 31 32 33 32 36 41 38 38 39 36 34 35 37 39 41 41 41 42 42 41 40 38 35 31 29 28 27 28
29 29 30 33 33 34 32 34 37 37 36 36 34 34 33 35 38 40 41 41 42 43 42 40 37 36 33 30 29 29 29 27
28 31 33 35 34 33 33 35 36 35 35 33 32 33 34 37 40 40 40 41 42 42 40 40 41 36 34 29 29 29 28 28
25 28 32 32 31 31 34 35 36 38 33 32 31 33 36 38 39 40 41 42 41 40 38 38 36 35 34 28 28 25 26 27
24 27 30 30 31 32 34 36 38 36 32 30 31 34 37 38 38 39 40 41 41 38 38 36 34 27 31 29 27 24 24 23
23 27 28 30 32 33 35 38 39 37 30 29 32 36 37 37 38 40 41 40 40 37 38 35 32 26 30 27 25 24 21 21

GFSFLT1_700_spd_054.txt.gz
Wind_Speed
16 16 15 13 17 17 15 15 15 20 21 23 23 16 13 11 12 25 33 26 22 27 26 24 24 30 34 35 37 38 40 41
12 17 19 17 20 24 19 19 20 22 23 22 15 12 8 6 4 10 17 19 21 23 24 27 30 34 38 40 40 40 39 41
17 19 19 21 26 27 21 25 25 23 17 12 9 8 11 12 12 16 19 19 21 26 26 31 35 36 37 40 39 41 40 40
19 21 22 24 26 26 25 23 17 15 13 11 14 16 13 14 15 17 17 21 23 27 29 33 36 38 38 40 41 42 42 40
20 24 22 23 22 19 18 14 13 11 12 14 16 12 14 17 20 16 25 23 27 30 32 36 36 37 39 41 41 42 40 41
27 23 20 17 15 14 11 11 12 12 15 17 10 11 15 19 23 27 29 30 34 36 38 38 40 41 42 43 44 43 41 42
24 19 17 15 11 11 11 13 17 15 13 13 15 17 21 24 24 26 29 35 36 37 36 39 40 40 40 40 41 40 37 35
19 19 17 14 13 13 15 17 17 16 17 17 18 21 22 25 29 30 36 35 33 33 35 37 38 39 39 39 38 41 37 35
19 19 18 15 16 16 16 18 19 19 19 21 22 25 28 27 29 37 32 33 33 34 36 37 39 39 39 38 38 40 42 31
21 21 19 21 19 17 16 20 24 24 23 24 27 29 31 35 35 37 37 33 33 35 38 40 40 40 40 39 39 39 39 33
21 23 22 23 23 22 17 20 26 27 26 30 33 36 35 35 37 37 36 35 35 38 40 40 40 40 40 39 38 38 34 32
20 22 23 25 25 27 22 23 29 30 31 31 33 39 39 35 37 37 36 36 37 40 41 40 40 40 40 39 37 36 34 33
21 23 25 27 31 30 27 27 32 34 29 31 34 40 39 38 38 36 36 38 40 40 41 41 41 39 39 36 36 34 33 32
22 24 31 34 33 32 31 32 32 31 31 33 41 38 39 37 34 35 36 38 40 40 40 41 41 39 35 35 35 32 31 31
27 32 35 33 31 33 35 32 31 30 34 37 37 39 37 35 33 34 36 39 40 40 41 42 40 42 38 35 34 32 30 29
32 35 33 31 32 33 32 34 30 33 34 36 38 39 39 35 32 34 38 39 39 41 41 41 36 36 39 39 35 29 29 29
23 25 27 29 32 31 34 32 32 35 34 38 39 38 34 31 34 33 37 39 40 41 42 38 35 35 37 35 33 31 31 28
21 24 26 31 33 35 34 31 35 34 38 39 39 32 33 31 30 34 37 39 41 41 41 37 35 35 35 33 28 31 32 28
22 24 28 32 35 35 34 35 38 41 42 40 34 30 27 29 32 36 38 40 39 37 39 34 35 36 35 31 25 32 29 27

GFSFLT1_700_spd_057.txt.gz
Wind_Speed
11 11 6 4 3 4 4 7 12 12 14 16 18 19 13 13 13 12 14 24 28 32 33 27 29 32 33 34 34 37 40 41
14 15 14 11 8 9 11 12 14 15 18 20 19 14 11 8 10 11 11 15 24 26 26 28 29 31 33 33 39 39 37 39
11 14 21 19 14 15 17 18 15 21 23 20 15 12 11 15 11 11 13 15 19 24 26 27 28 28 31 36 37 37 38 38
15 17 20 21 20 20 19 20 21 23 20 14 14 15 19 17 13 14 16 21 21 23 24 28 30 32 34 34 36 37 37 36
20 21 23 23 20 20 21 24 23 18 13 17 18 19 19 16 17 16 19 17 25 26 29 33 33 34 36 37 38 39 39 39
26 26 22 25 24 22 21 17 15 14 20 19 18 18 20 20 21 22 25 27 29 32 35 33 34 35 36 38 39 40 40 40
25 25 24 20 19 17 16 17 17 17 16 16 16 19 19 21 22 23 25 27 34 39 36 39 39 38 39 39 39 40 40 40
31 31 29 20 18 18 18 16 14 14 16 18 18 20 21 23 26 27 31 30 35 36 35 34 35 36 37 38 38 38 40 42
34 28 22 16 15 15 16 17 16 16 16 18 19 21 24 26 28 37 38 35 34 36 33 33 33 36 37 38 37 38 40 41
24 22 20 14 17 17 18 20 21 20 17 17 19 22 26 30 34 41 44 33 32 33 33 32 35 37 38 38 39 39 40 38
20 21 21 19 19 19 22 25 26 24 21 21 23 29 31 31 34 40 39 34 34 32 32 34 37 38 39 39 38 38 38 37
18 20 23 24 23 21 22 25 27 28 28 29 28 30 32 40 39 39 35 35 35 34 35 37 38 40 38 38 37 36 36 36
16 19 24 25 26 25 28 29 29 30 31 34 33 35 38 37 40 35 35 37 37 35 37 38 40 40 36 36 37 35 34 35
20 20 24 27 29 29 30 33 37 37 36 31 33 34 36 41 34 33 34 34 33 36 35 38 42 40 39 37 35 35 35 33
20 22 28 32 33 35 37 39 40 36 33 37 35 40 38 37 31 32 33 35 36 33 36 40 41 38 38 37 36 35 36 33
22 27 32 34 38 41 41 40 35 34 36 35 39 37 41 38 41 34 34 36 31 32 39 42 39 36 36 35 36 36 36 32
26 30 33 36 40 40 36 33 35 37 35 35 37 39 44 41 41 40 32 29 31 36 40 40 37 35 35 34 34 34 32 25
25 29 35 37 35 32 32 36 39 38 34 38 39 42 41 43 36 27 28 30 33 36 38 39 36 33 35 33 33 32 29 25
26 28 31 32 33 35 38 41 41 39 38 42 44 49 36 22 27 28 31 33 34 36 37 36 34 34 34 33 32 31 29 29

GFSFLT1_700_spd_060.txt.gz
Wind_Speed
14 15 14 13 11 10 7 4 5 7 9 10 11 13 14 12 13 14 16 17 19 21 24 25 28 30 31 33 33 33 33 38
7 10 9 9 8 7 7 6 9 10 11 13 15 17 13 12 11 16 17 16 18 18 22 25 27 31 33 33 33 33 36 40
12 11 8 5 5 6 6 8 11 12 14 16 17 15 13 13 16 16 14 15 17 19 20 24 28 29 31 34 35 38 39 40
18 18 15 14 15 14 14 14 13 15 18 20 16 14 14 16 14 14 14 15 18 21 24 29 30 31 32 33 37 40 40 39
19 16 18 20 20 20 20 18 17 20 21 16 14 15 15 14 15 14 16 17 22 21 25 27 26 26 32 35 37 39 40 39
19 18 18 20 23 23 23 21 23 23 17 14 15 15 15 15 16 17 19 24 25 29 31 30 30 35 36 36 38 38 40 40
22 22 23 26 18 18 24 27 24 17 14 15 17 17 16 18 20 21 25 29 24 35 39 31 35 36 37 38 38 40 41 41
26 29 25 19 21 22 20 19 16 14 15 16 16 17 18 20 22 27 23 29 38 43 48 37 34 35 36 38 40 40 41 42
29 30 24 27 25 22 18 17 17 16 16 15 17 20 22 25 27 32 29 29 40 41 42 35 33 34 37 40 40 39 41 42
28 29 28 28 24 20 19 20 19 17 17 17 20 23 25 28 28 31 42 38 37 47 39 36 33 36 39 39 39 40 41 42
26 24 24 19 19 18 19 20 20 22 22 23 23 24 28 26 39 38 36 45 42 39 36 36 36 39 39 38 39 41 42 42
14 14 14 15 17 18 21 21 23 23 22 22 24 31 35 35 32 31 41 45 45 38 37 37 37 40 36 37 40 42 41 40
9 10 12 16 18 21 21 21 25 24 26 30 31 35 41 33 38 45 40 44 47 42 42 38 40 38 34 39 41 41 39 38
16 17 18 20 20 21 24 25 27 30 30 34 37 35 40 37 45 48 41 48 42 39 42 43 32 32 37 41 41 40 39 37
20 22 24 24 23 25 30 28 30 32 34 37 39 38 39 42 41 43 47 45 44 41 30 30 32 36 39 39 38 39 38 36
23 27 30 28 26 29 29 31 32 35 38 38 39 38 40 41 46 46 50 45 30 26 30 34 37 38 38 38 38 38 37 36
24 25 26 28 28 29 32 31 36 38 36 37 38 42 40 44 47 47 39 27 23 27 31 35 36 37 37 36 37 37 37 35
22 23 24 26 29 30 32 35 36 35 37 38 42 46 45 47 44 36 28 23 24 29 32 34 36 37 37 36 36 37 36 35
20 22 23 25 28 30 33 34 37 38 39 41 43 46 49 41 33 27 21 24 27 30 32 33 36 38 38 37 38 37 34 33

GFSFLT1_700_spd_063.txt.gz
Wind_Speed
16 18 17 15 15 15 15 12 7 5 6 5 5 7 9 10 11 12 13 16 18 19 21 21 21 21 24 27 30 32 34 36
12 15 15 16 14 12 10 8 5 6 6 7 8 10 12 12 12 12 14 18 18 18 20 22 23 25 29 31 33 34 36 37
12 12 11 11 9 8 8 8 7 7 10 11 11 14 14 13 13 13 18 16 16 19 19 22 26 28 31 33 33 35 36 40
8 8 5 7 7 7 9 10 10 12 13 13 13 15 13 12 14 17 14 15 17 21 23 24 25 28 31 30 31 36 38 40
12 7 6 7 9 12 13 17 16 16 16 15 16 14 13 14 16 14 13 16 18 22 23 24 26 30 33 34 36 36 39 39
15 12 9 9 9 9 14 17 19 19 20 18 14 13 14 14 13 15 15 19 24 24 28 24 34 38 38 35 38 38 39 39
19 16 15 14 15 12 14 17 19 22 21 18 13 13 13 13 15 18 20 27 28 22 25 37 33 35 43 40 38 40 40 41
19 17 16 19 14 13 15 17 21 23 20 16 14 13 13 14 17 23 27 30 35 27 44 34 37 43 40 40 40 41 40 42
22 20 23 22 15 16 19 24 21 18 17 17 16 16 16 18 25 27 33 30 24 32 37 44 43 43 39 41 41 40 40 42
20 19 21 19 19 23 28 21 16 16 17 19 20 21 21 25 29 31 37 32 34 31 42 39 47 41 44 43 42 42 45 42
19 18 18 20 23 28 23 17 15 18 21 22 20 21 29 32 31 36 40 44 34 40 45 43 43 50 44 44 45 41 39 41
14 16 17 19 19 19 18 18 16 17 16 18 19 26 27 29 38 39 42 42 41 45 51 46 53 47 44 39 34 35 39 43
7 10 11 11 11 12 15 17 16 16 18 22 28 28 31 35 44 38 45 41 47 45 47 47 47 40 31 31 35 40 42 44
9 11 13 15 17 16 18 17 20 22 26 27 31 31 33 34 35 35 42 42 43 48 52 43 36 26 28 33 37 40 43 45
13 17 20 24 24 23 24 23 28 32 26 30 29 33 33 34 37 37 40 42 44 48 45 39 29 28 32 36 39 41 43 44
18 21 26 26 25 26 25 28 32 32 31 26 28 30 34 35 38 41 45 46 46 44 36 28 27 31 35 38 40 42 44 45
20 22 25 26 25 25 24 29 32 30 27 27 31 37 36 39 43 45 47 46 43 35 30 28 31 33 36 38 41 43 44 43
19 18 23 23 21 22 23 26 26 27 29 32 35 37 39 43 45 49 45 44 37 30 30 31 32 34 37 40 42 43 43 43
20 19 20 21 20 20 21 23 28 28 30 33 36 39 43 46 48 44 44 37 31 31 31 32 33 36 38 40 42 43 42 41

GFSFLT1_700_spd_066.txt.gz
Wind_Speed
21 16 15 15 14 17 18 18 16 14 11 8 5 3 4 6 8 9 9 10 13 15 15 15 15 16 17 20 24 29 32 33
16 16 16 17 19 19 18 15 14 10 7 6 5 6 6 8 10 10 10 11 14 15 15 16 17 21 24 27 30 32 33 33
14 15 16 16 16 17 16 14 11 9 8 9 9 9 8 8 9 10 9 13 15 15 17 19 22 24 24 26 29 30 30 35
13 13 13 13 12 11 10 10 9 9 9 12 11 11 10 8 8 9 12 15 16 18 19 22 26 27 24 28 31 33 31 37
11 10 9 5 7 12 12 12 12 12 12 13 13 13 13 9 10 13 15 16 17 20 21 21 23 28 29 40 32 37 38 37
13 10 9 9 8 9 11 13 13 15 14 14 15 16 14 12 14 15 15 17 21 22 26 27 26 25 34 39 40 47 41 41
15 13 13 11 11 11 11 12 12 15 18 17 17 17 16 15 15 15 17 20 23 28 26 33 26 30 34 39 45 42 41 45
21 17 13 11 12 14 11 9 11 15 19 20 20 18 16 16 17 18 21 24 25 30 28 31 33 36 39 40 42 45 43 43
20 20 16 13 17 9 14 10 14 17 17 17 17 18 20 20 21 23 24 25 29 39 37 35 36 41 40 49 44 41 43 44
12 14 13 15 16 13 15 17 21 20 17 16 18 22 20 22 27 26 28 29 33 34 40 36 42 40 46 44 40 41 42 40
10 12 14 14 16 17 17 21 24 18 17 18 22 22 24 24 22 24 27 34 42 38 41 34 45 42 45 47 41 38 35 35
6 7 10 13 16 16 20 19 15 14 15 18 18 17 18 26 19 27 24 27 31 38 38 45 46 41 47 47 41 34 33 36
6 7 10 11 15 18 15 9 8 8 12 16 18 19 25 23 33 30 31 35 29 44 38 41 42 46 45 41 34 34 36 40
11 8 9 10 13 18 17 16 16 16 18 24 22 21 27 21 35 26 35 37 38 37 41 46 43 42 36 31 32 36 38 39
15 15 14 15 19 21 23 23 25 23 22 25 29 22 18 26 24 32 35 36 39 41 45 44 42 35 31 33 36 37 38 40
18 19 17 17 23 25 25 25 25 25 27 31 32 25 25 28 30 32 36 39 41 44 42 42 38 31 34 37 37 38 40 42
20 19 18 21 23 25 25 24 22 25 29 36 25 27 29 31 33 44 35 43 45 41 44 38 33 34 38 38 39 41 43 45
21 21 19 19 22 24 23 21 19 20 21 24 26 28 31 35 40 41 41 43 42 45 37 34 35 37 38 39 41 44 46 46
20 19 19 20 18 20 20 16 16 18 21 24 27 30 36 39 45 40 45 44 42 35 33 36 37 38 40 42 44 47 47 47

GFSFLT1_700_spd_069.txt.gz
Wind_Speed
17 17 18 17 21 21 19 18 20 20 19 16 14 10 9 8 8 7 8 9 10 11 12 12 12 13 14 17 21 24 26 27
17 18 18 20 21 21 19 18 17 15 14 11 9 7 7 6 7 11 9 10 12 13 14 14 15 16 19 22 24 25 28 30
17 20 21 19 18 18 17 16 14 13 12 11 10 9 7 8 9 9 9 12 14 15 15 16 16 19 24 27 27 25 31 28
14 15 17 18 16 15 13 13 13 12 11 13 13 9 10 8 10 11 12 15 16 16 16 16 17 21 23 24 27 29 36 31
16 15 14 13 14 15 16 18 17 15 15 13 13 12 12 14 14 14 13 15 15 16 16 16 19 24 31 29 26 30 32 32
18 15 15 14 15 16 16 17 19 19 18 15 15 15 14 17 18 15 13 15 16 18 19 21 30 31 30 29 33 40 33 37
17 18 19 17 18 17 17 19 20 20 21 17 16 17 17 18 17 16 15 17 17 20 23 29 31 32 33 34 31 44 45 37
21 21 20 20 19 18 18 16 15 15 16 18 16 18 20 19 19 18 17 19 22 24 26 29 36 35 35 33 42 41 42 41
22 21 21 17 16 17 15 11 13 14 13 15 18 20 20 20 21 20 21 23 24 27 31 31 35 36 37 33 42 37 40 38
17 17 17 18 21 14 15 15 15 16 16 16 19 21 21 21 20 20 24 21 23 25 26 34 44 34 43 44 40 42 42 42
13 14 16 14 13 17 18 16 15 17 19 19 19 22 21 21 20 18 19 20 26 25 24 34 30 38 44 41 42 42 42 37
8 13 14 15 17 18 17 16 15 18 17 18 20 22 22 17 20 18 22 26 34 34 26 31 42 36 40 43 42 42 38 33
8 9 10 15 19 20 19 17 15 11 10 9 11 15 19 21 21 23 17 27 28 28 32 35 33 37 41 42 41 37 33 34
12 12 10 9 14 16 19 18 17 18 18 17 17 21 23 28 21 36 23 18 29 29 36 34 39 41 40 41 36 32 34 37
16 16 14 13 13 14 17 18 21 23 25 25 20 27 30 32 16 26 28 33 28 35 33 38 38 40 41 36 33 34 37 38
14 19 20 17 14 17 19 21 22 22 23 24 26 32 35 26 14 28 28 29 39 39 41 36 41 40 36 33 34 36 38 39
19 19 22 20 18 20 21 22 22 22 22 23 23 29 24 18 28 32 28 39 40 37 39 41 38 34 33 33 35 38 40 42
24 23 23 22 22 22 22 22 24 24 22 20 16 23 24 29 31 29 43 33 34 43 42 38 34 32 33 35 38 42 44 46
18 19 20 23 24 21 22 25 24 24 21 18 19 23 25 30 31 39 31 38 39 40 36 33 33 33 36 39 42 45 47 49

GFSFLT1_700_spd_072.txt.gz
Wind_Speed
20 15 14 16 17 16 16 17 19 19 21 19 19 18 17 16 15 14 13 14 15 14 13 12 12 12 12 13 17 20 20 21
11 13 14 17 19 18 16 17 18 19 18 16 14 12 13 14 14 14 13 14 13 11 14 13 13 12 14 16 19 22 23 24
14 16 20 21 20 19 18 17 17 16 15 15 14 14 14 13 13 14 16 15 13 14 13 13 14 15 17 19 21 24 22 20
17 19 20 21 21 19 18 17 16 16 17 18 17 14 13 13 12 14 16 13 14 13 13 14 15 18 22 23 24 27 33 35
18 18 19 18 19 20 20 20 20 19 19 18 18 17 15 14 15 15 17 16 14 13 13 15 17 21 25 27 32 34 30 34
19 19 20 21 22 21 22 21 21 21 21 19 19 20 20 19 19 22 17 17 17 15 16 19 21 24 28 32 35 33 38 32
21 20 20 21 22 23 23 22 22 23 23 22 22 23 23 23 23 18 19 20 19 18 19 22 24 25 29 36 34 29 27 33
25 25 24 25 24 23 22 22 23 22 23 23 23 21 24 25 25 22 21 21 20 21 24 25 26 28 32 31 30 24 32 33
32 29 26 26 26 25 23 25 22 20 19 18 18 26 28 25 26 23 22 23 24 25 27 27 25 28 32 38 31 36 38 38
26 32 33 28 26 23 19 23 22 19 18 23 22 23 25 26 25 25 26 25 26 27 26 27 31 29 33 34 37 39 38 40
18 25 29 30 29 27 27 22 21 21 21 22 24 24 27 27 27 26 25 25 26 24 27 33 34 30 28 35 39 38 39 41
14 18 21 26 28 26 25 29 26 23 21 21 22 23 25 27 27 26 25 27 30 23 31 36 21 26 28 33 35 37 39 40
5 7 13 24 29 29 28 27 26 23 20 17 17 18 22 23 24 26 29 31 25 17 29 33 24 31 30 34 37 39 39 37
13 11 13 13 20 25 26 24 25 27 23 20 19 19 20 24 28 34 33 34 27 16 27 29 24 23 33 34 40 37 34 33
11 11 15 17 17 19 22 23 26 27 25 25 26 26 29 25 23 33 35 36 28 22 32 30 25 27 35 36 36 33 32 32
19 17 17 20 21 22 22 21 23 25 23 25 26 28 27 28 34 36 31 20 28 23 34 31 30 36 34 32 31 31 32 34
20 20 20 19 25 23 24 24 22 24 25 27 29 30 30 28 29 34 35 30 21 29 28 32 34 34 30 30 32 33 34 36
29 29 28 28 28 29 27 26 27 27 29 31 32 32 30 23 25 29 29 24 31 30 33 33 33 30 30 31 33 36 38 40
19 19 22 22 24 27 28 29 30 31 33 33 31 27 23 23 25 27 31 29 30 35 36 33 32 29 30 33 35 39 43 45

GFSFLT1_700_spd_075.txt.gz
Wind_Speed
18 23 26 25 27 29 29 28 21 18 19 22 23 22 21 22 20 20 20 17 15 16 15 14 14 13 13 14 14 15 16 18
15 15 15 18 17 18 17 20 16 17 17 18 18 17 17 18 19 18 17 17 17 18 17 14 14 14 15 16 16 17 19 20
10 13 16 15 17 19 19 17 17 17 17 16 15 15 15 17 17 18 18 19 19 19 16 14 13 14 16 17 18 20 22 21
12 13 16 18 20 19 19 18 17 16 17 18 17 16 16 17 17 18 19 19 18 18 15 15 15 16 18 19 21 22 24 28
14 16 19 18 17 15 15 17 18 19 19 20 19 17 16 17 18 17 18 25 19 18 16 18 17 19 20 21 24 27 28 32
14 17 17 18 20 19 19 19 20 21 21 21 19 20 21 22 22 21 21 19 23 22 20 20 21 21 23 25 27 28 32 34
23 17 19 20 20 21 22 23 22 23 22 23 23 22 24 21 24 27 26 21 18 25 25 24 25 25 25 27 32 33 34 31
26 27 25 23 24 24 24 24 24 24 24 25 24 24 26 24 26 29 31 28 27 26 27 28 29 28 28 32 35 32 37 36
28 29 29 28 27 27 25 25 24 25 25 23 24 25 28 23 28 27 30 32 29 29 30 32 31 31 30 33 32 28 37 37
25 29 30 30 30 29 28 26 26 28 26 23 21 22 23 24 29 31 31 31 32 32 31 31 33 28 32 38 37 35 32 35
16 24 30 31 33 29 27 27 25 23 24 28 27 25 25 27 29 31 32 32 35 32 30 32 31 32 41 37 30 27 30 31
11 15 21 27 32 34 33 30 30 29 25 25 28 27 29 31 30 30 29 32 35 30 30 33 35 37 35 29 27 29 33 34
6 7 13 20 23 29 32 33 34 35 36 34 30 28 28 26 26 26 26 29 31 30 36 29 20 29 25 26 25 30 34 36
13 14 14 15 19 27 30 31 32 33 38 36 32 28 24 24 24 25 28 29 35 43 38 16 25 26 26 24 27 33 34 33
13 14 14 16 19 23 30 34 34 36 36 34 32 31 30 27 27 29 28 32 29 44 43 34 26 35 32 26 31 32 34 32
15 16 18 19 19 22 25 29 33 33 30 30 33 31 30 28 29 30 31 30 32 22 29 21 23 29 30 30 32 31 32 33
21 22 16 23 24 25 29 29 29 30 29 29 31 31 30 30 31 32 32 29 33 32 27 27 30 30 34 30 30 32 34 34
26 26 29 32 30 28 29 31 30 30 31 30 31 32 32 33 31 30 28 30 29 28 27 30 33 33 34 31 32 34 35 35
32 33 33 35 38 37 33 33 33 32 32 33 33 35 34 31 30 26 27 28 31 32 31 34 34 33 32 31 33 35 37 38

GFSFLT1_700_spd_078.txt.gz
Wind_Speed
6 5 7 11 14 20 9 24 29 28 30 33 30 30 27 22 20 19 18 19 19 17 18 13 15 14 12 12 12 14 15 14
18 17 20 21 23 24 23 17 18 18 19 20 23 22 23 23 22 21 20 19 19 18 19 16 16 15 13 14 14 15 16 15
6 11 15 17 19 24 22 17 13 13 13 15 18 18 19 19 18 18 18 19 19 18 20 17 19 17 15 16 15 18 21 19
7 11 12 16 17 18 18 17 15 14 15 17 17 17 16 16 16 17 17 18 18 20 21 18 21 20 17 18 18 21 23 23
7 10 12 12 14 15 14 14 16 15 15 15 15 13 12 12 15 17 17 18 21 20 23 24 23 23 21 21 22 23 22 28
8 9 10 12 14 13 14 17 17 18 17 16 16 15 16 17 18 17 18 22 23 20 21 25 26 25 26 24 25 24 26 26
14 13 15 14 16 17 17 16 16 18 20 20 20 19 20 20 18 18 22 24 24 25 23 26 29 29 31 29 26 27 29 29
21 20 21 19 21 20 20 21 21 21 19 20 22 21 22 22 21 22 25 26 25 31 33 31 31 32 34 31 30 32 32 32
27 27 24 23 23 22 24 23 22 24 22 19 22 24 24 27 26 22 27 27 27 29 35 36 34 37 35 33 34 35 37 36
26 28 31 31 28 27 24 24 23 25 27 22 22 24 26 28 25 23 24 26 33 32 33 37 38 40 34 34 36 39 40 44
19 26 27 33 31 31 28 26 28 27 28 27 27 26 27 28 26 27 27 27 30 32 35 37 40 43 29 36 39 45 42 37
12 17 24 30 32 31 33 32 30 31 31 31 27 24 28 32 31 29 30 31 31 30 38 39 38 26 31 35 38 32 34 34
11 9 16 24 27 30 34 38 33 35 35 35 36 29 25 30 31 28 30 28 23 27 22 33 28 34 36 25 22 29 33 29
12 13 12 12 19 30 35 29 27 28 33 36 38 31 29 30 29 30 28 23 28 25 27 30 35 45 28 23 28 30 29 29
12 16 16 14 14 17 23 29 30 27 29 34 36 27 31 34 32 30 28 28 29 26 30 35 39 39 41 30 31 35 31 33
13 15 16 19 20 18 19 26 28 28 28 29 32 30 33 31 33 29 32 35 28 32 32 37 31 37 31 26 30 33 34 31
16 16 17 21 23 24 26 28 27 26 28 30 31 33 31 27 29 35 38 34 31 33 31 33 32 28 29 29 31 32 31 29
27 25 24 24 32 28 28 29 28 28 29 30 32 30 27 30 34 38 33 30 29 31 30 31 30 30 30 29 30 32 31 31
31 30 31 33 35 36 37 37 34 29 28 31 32 33 33 34 35 32 29 28 29 31 31 31 30 31 34 32 31 31 32 34

GFSFLT1_700_spd_081.txt.gz
Wind_Speed
5 5 4 7 7 6 11 6 14 19 16 21 21 19 16 24 36 31 26 31 23 19 16 16 17 16 12 11 10 11 11 11
14 16 10 12 13 6 6 15 21 21 21 24 24 22 20 25 24 24 25 23 21 18 18 18 18 15 14 13 14 15 13 12
6 12 22 27 25 25 25 23 23 21 19 21 21 22 20 18 18 18 17 16 18 20 19 17 19 18 17 17 17 18 18 15
4 5 11 16 19 18 17 17 18 18 18 19 19 19 19 20 18 16 15 16 18 19 14 17 21 21 19 19 21 21 21 18
2 3 6 8 11 13 12 14 13 15 15 16 17 14 12 12 14 14 16 17 19 18 19 18 20 25 22 23 25 24 24 23
5 3 5 7 6 7 9 12 13 13 14 14 13 14 12 13 15 15 15 16 17 19 20 17 19 23 26 27 29 28 26 28
8 8 10 11 10 10 11 11 13 13 13 14 13 12 14 15 14 13 14 16 20 21 22 25 27 25 27 31 32 31 28 30
8 10 15 15 15 14 13 13 13 13 13 12 12 13 15 16 16 16 16 19 22 22 23 25 29 34 33 34 35 35 34 32
14 9 11 14 18 18 18 18 17 18 17 17 17 17 18 19 20 20 20 22 20 21 24 27 29 33 38 41 36 38 35 34
21 19 18 17 16 19 22 22 21 22 20 20 19 19 21 21 22 22 22 23 20 23 27 28 30 35 39 41 42 39 31 35
16 24 23 25 22 19 18 19 23 24 26 24 22 21 23 25 25 24 23 24 24 26 27 28 31 33 43 44 39 29 31 39
15 21 20 25 27 26 25 22 18 19 26 28 28 26 27 27 26 28 26 26 26 27 26 23 28 25 27 29 30 30 32 32
14 12 20 18 21 26 29 24 22 19 21 26 28 32 30 33 28 25 26 27 29 28 27 26 28 22 22 23 27 31 31 31
16 18 12 19 18 18 23 24 23 21 24 24 31 35 38 34 31 22 26 25 26 27 26 30 24 25 25 32 31 36 37 31
15 17 17 13 15 15 19 23 23 23 27 27 28 30 34 29 30 27 27 29 30 28 33 29 26 29 30 35 34 35 32 29
15 16 16 18 16 18 17 20 23 24 28 28 26 26 27 24 28 26 30 31 31 35 36 29 29 26 37 32 36 32 28 30
17 19 20 19 22 23 23 22 25 24 26 24 23 24 26 28 31 31 33 31 37 35 32 31 35 34 39 28 30 30 30 31
24 27 27 30 30 32 29 25 23 24 26 26 27 28 28 32 32 32 33 35 33 33 34 39 40 32 37 27 29 30 30 30
23 26 30 32 32 33 31 29 30 33 30 31 31 32 33 35 33 31 33 31 33 36 34 38 31 41 34 29 29 30 30 29

GFSFLT1_700_spd_084.txt.gz
Wind_Speed
18 3 9 12 14 15 14 22 13 16 21 27 39 41 28 28 22 26 33 33 32 26 27 25 19 17 16 13 14 15 15 13
13 16 6 11 13 16 15 16 15 22 23 21 25 22 19 22 21 28 33 27 27 32 27 24 19 17 16 17 17 16 15 14
9 12 14 17 15 19 19 18 19 15 12 17 22 22 20 22 27 28 28 30 32 28 27 22 16 18 17 18 19 19 17 18
5 7 10 11 19 19 19 20 20 22 24 26 27 29 29 28 29 31 30 27 27 27 25 21 18 18 19 21 22 23 21 21
2 4 4 7 13 14 16 18 18 18 19 19 19 20 19 23 27 25 26 27 29 23 20 19 19 20 23 21 24 25 26 24
4 5 5 5 7 10 12 13 15 16 15 15 14 16 15 15 17 19 21 21 22 23 20 21 21 23 23 23 24 28 29 29
7 10 11 8 9 9 10 11 11 11 12 13 12 12 14 16 17 16 17 18 17 19 18 18 19 23 25 25 25 30 33 35
11 11 12 12 10 9 9 10 10 11 12 12 12 14 15 13 13 13 14 15 17 16 19 19 20 22 23 23 29 31 38 38
12 11 9 10 13 13 13 12 13 11 11 10 10 12 16 17 17 16 17 18 18 20 22 23 23 24 26 28 28 37 36 42
15 15 15 13 12 11 14 17 15 15 13 14 15 16 17 17 18 19 21 21 25 25 25 25 25 25 25 22 29 32 35 42
14 17 18 18 17 17 15 14 16 17 19 21 22 22 21 21 22 23 23 24 27 29 29 24 20 24 25 24 24 25 35 29
12 10 15 19 19 22 21 18 16 16 16 20 23 25 26 26 28 29 27 27 27 29 29 28 23 25 25 24 22 20 20 21
12 12 12 15 19 22 21 21 20 19 17 18 18 21 26 29 30 35 37 34 29 26 28 29 28 27 25 25 24 22 28 26
15 14 13 11 12 15 18 18 19 19 19 20 22 24 25 26 31 37 40 29 16 26 28 28 26 28 30 32 31 21 28 34
17 17 14 14 14 14 16 16 16 18 21 22 23 23 22 26 30 33 35 17 20 21 26 26 29 30 31 31 32 27 32 36
19 23 20 16 18 17 17 18 17 14 19 22 24 24 26 28 33 27 21 20 22 24 27 29 35 37 35 37 29 30 36 42
13 17 20 20 22 21 23 21 19 18 20 22 23 23 26 26 25 26 26 27 27 29 31 34 37 36 33 37 37 35 34 38
15 16 20 24 26 26 27 26 23 23 23 22 22 26 29 29 29 30 31 33 34 36 38 38 39 38 34 37 39 33 32 32
17 19 20 23 25 28 29 28 26 25 27 26 30 31 33 34 36 36 36 37 40 38 38 40 46 35 38 45 34 30 31 35

GFSFLT1_700_spd_087.txt.gz
Wind_Speed
17 8 12 11 11 12 17 11 13 16 11 33 25 26 37 41 36 34 38 41 38 28 32 32 28 23 17 16 17 16 14 14
16 15 2 14 13 9 14 19 21 15 24 23 26 30 34 33 37 37 40 33 33 33 34 29 24 20 17 20 19 16 14 15
12 14 16 11 16 17 17 14 19 16 24 19 23 23 19 27 33 27 26 26 35 38 31 28 22 23 23 22 18 17 18 16
7 9 12 13 15 15 15 15 17 16 17 20 21 24 26 26 29 29 27 29 38 38 34 26 25 24 25 22 21 20 21 21
6 5 7 10 10 12 13 15 18 19 24 25 25 27 25 25 29 29 28 31 32 33 31 27 25 27 28 26 23 20 21 24
3 3 1 4 8 10 11 13 15 19 21 20 20 20 21 24 25 25 25 27 31 29 26 28 31 32 28 25 22 22 19 22
8 8 5 4 3 6 8 9 11 13 16 18 20 20 20 21 22 22 25 27 26 26 26 24 27 28 27 26 22 26 26 24
11 7 5 7 5 4 5 7 6 7 9 11 14 14 15 14 15 17 20 22 21 20 24 26 27 25 25 26 25 25 27 28
14 10 7 6 9 11 8 6 5 7 8 9 11 13 13 15 16 17 19 20 21 23 26 27 27 25 27 26 26 26 30 35
16 17 13 13 12 10 11 13 13 12 12 14 14 14 14 14 15 18 20 22 24 27 29 31 29 29 27 26 26 25 25 25
15 16 16 16 17 17 15 15 21 19 18 17 17 17 17 17 20 21 22 24 27 29 31 33 33 33 29 26 29 29 27 28
7 11 11 11 18 21 21 18 17 23 23 24 23 22 22 24 25 27 28 29 30 31 33 36 38 40 33 21 26 28 29 28
11 10 8 7 8 12 19 20 19 17 19 19 20 22 23 25 26 29 31 34 35 39 39 38 39 33 30 32 28 30 31 30
12 13 12 10 10 11 12 13 15 15 16 18 20 20 22 22 24 26 26 30 36 44 45 43 32 26 29 29 31 32 34 31
16 15 14 12 11 11 7 9 9 12 14 16 19 22 21 22 22 24 25 29 28 18 12 17 25 29 32 31 32 35 36 36
18 16 16 17 17 15 15 14 13 13 15 15 16 19 22 24 25 25 26 25 27 21 20 24 24 28 32 32 36 36 33 39
21 18 15 15 18 17 18 19 19 19 18 19 20 22 24 24 23 24 26 26 27 27 28 28 29 31 35 39 37 39 35 47
19 17 14 14 18 17 18 20 22 23 23 21 23 25 25 26 29 29 29 32 32 34 34 36 37 39 33 40 46 43 37 38
21 15 14 16 17 19 22 23 23 25 25 26 25 26 28 29 29 31 34 38 39 40 39 37 37 34 42 40 45 41 37 37

GFSFLT1_700_spd_090.txt.gz
Wind_Speed
18 21 11 16 13 12 15 11 14 20 14 33 29 39 39 37 35 40 43 40 37 33 30 30 30 29 24 22 21 17 14 13
16 18 13 21 15 18 18 15 13 14 16 24 34 36 27 38 45 49 48 39 48 40 36 34 32 31 24 23 22 17 15 15
12 14 15 10 12 11 21 22 22 17 14 15 32 39 33 47 45 46 44 32 39 41 42 35 30 30 26 25 19 18 19 19
9 11 11 13 5 6 12 17 23 20 16 17 24 29 37 47 33 32 35 29 34 45 32 31 32 30 26 23 20 21 23 23
4 6 7 8 11 12 10 7 11 17 18 19 30 21 26 25 28 26 35 34 29 34 34 34 34 30 27 24 24 24 25 25
4 1 3 5 6 10 12 11 11 9 8 17 23 25 23 23 26 29 32 31 33 38 38 38 34 33 27 28 29 28 28 28
9 6 1 1 5 7 10 10 12 13 13 13 14 14 17 20 21 26 29 29 29 29 34 36 32 31 32 32 34 34 31 30
12 5 2 2 3 6 8 9 9 10 12 12 12 12 13 14 16 18 21 22 22 24 27 30 30 33 33 32 31 32 35 33
14 9 6 3 3 4 5 8 10 10 11 11 11 11 12 14 16 18 17 17 18 21 24 27 31 33 33 31 33 37 37 34
14 13 10 9 6 5 7 9 9 11 13 15 14 13 13 15 15 16 17 19 21 23 26 28 31 31 33 37 39 39 38 35
16 15 13 12 12 11 10 11 15 16 15 15 16 17 17 16 19 20 21 22 24 26 28 31 34 38 40 42 44 42 41 39
9 11 10 12 14 15 18 16 13 15 19 21 20 20 21 22 22 21 22 23 24 27 31 35 39 41 44 46 49 49 50 36
8 6 10 13 11 10 9 14 17 17 17 22 25 22 29 28 26 25 27 28 30 31 34 37 41 43 49 50 50 36 43 26
9 7 9 8 7 8 7 8 10 12 15 23 20 22 25 28 28 29 30 30 31 33 34 29 41 51 36 50 53 40 29 34
15 12 11 10 10 10 3 2 2 4 6 9 15 21 21 23 24 25 26 26 29 28 29 35 23 22 25 25 26 28 34 34
16 16 14 12 13 15 10 8 8 8 10 11 11 10 12 17 21 23 25 27 28 27 26 25 27 27 27 29 33 35 36 39
20 22 20 16 15 16 13 12 13 14 15 15 15 17 17 18 20 22 23 23 25 27 27 26 27 29 30 33 37 40 40 40
18 18 19 19 14 15 15 17 18 21 22 21 21 21 21 22 23 23 25 27 28 29 31 33 34 34 35 39 40 40 46 48
25 21 21 15 15 18 18 19 20 24 25 24 25 27 28 26 26 26 27 29 31 33 33 36 38 39 40 37 36 42 49 36

GFSFLT1_700_spd_093.txt.gz
Wind_Speed
18 21 23 13 13 12 12 9 4 6 14 23 36 42 27 25 44 41 39 40 36 34 34 30 26 21 21 22 21 21 17 17
16 19 23 8 12 15 9 11 9 8 9 13 27 33 30 27 37 42 42 47 45 39 35 33 28 25 30 25 23 22 20 18
12 14 16 2 14 14 14 14 14 13 17 17 19 24 34 36 37 37 36 41 47 50 44 36 33 31 31 31 24 23 21 21
8 10 10 8 5 15 13 23 15 16 15 17 23 25 34 28 33 37 40 39 35 41 37 40 39 33 33 25 26 26 23 23
6 6 7 6 7 7 13 18 19 21 19 16 15 22 33 17 26 32 33 41 40 36 48 52 45 35 30 25 27 27 26 25
7 4 1 3 6 7 8 11 11 19 23 16 16 22 15 22 25 28 33 32 45 33 32 41 40 34 28 29 29 30 29 28
12 6 3 2 4 6 7 8 9 10 11 14 22 23 23 21 23 30 23 24 24 28 32 36 30 33 31 29 30 31 32 32
14 8 5 4 3 4 5 7 8 9 11 12 14 17 21 19 19 22 25 26 29 31 33 32 32 35 32 34 36 32 38 38
16 12 9 8 6 4 4 5 6 7 8 9 11 12 14 15 17 20 19 18 20 23 21 25 32 38 38 38 37 37 40 42
18 16 11 8 6 6 6 6 6 7 7 7 8 9 11 12 14 15 16 17 20 19 21 24 30 35 36 37 39 40 45 45
20 20 16 11 11 10 9 10 11 11 12 12 10 9 9 10 12 14 15 17 19 21 23 25 27 30 33 38 41 45 49 48
16 17 16 15 14 15 15 14 13 16 18 17 16 16 15 16 16 16 17 20 21 24 26 28 31 35 38 43 47 51 53 55
14 15 17 14 12 15 14 13 15 17 15 19 22 21 20 22 22 22 24 25 25 26 29 33 35 39 42 48 52 51 53 54
18 13 11 13 12 9 13 11 13 15 16 19 21 22 22 29 24 25 28 28 29 30 31 33 35 36 42 43 40 43 45 48
21 16 11 11 11 8 8 7 11 12 13 13 15 18 23 18 21 25 30 30 31 32 34 37 40 38 43 36 36 35 33 30
20 19 15 13 11 11 13 8 7 7 7 7 6 11 14 19 24 26 25 26 28 32 33 34 35 36 34 34 35 33 36 36
22 21 21 18 16 14 15 16 12 12 11 11 13 14 17 18 19 23 25 28 30 31 32 31 32 33 32 32 34 37 40 41
22 22 22 25 23 19 18 21 20 19 19 21 21 21 23 26 26 26 25 26 28 29 30 32 32 34 34 35 37 41 43 45
29 29 26 25 25 26 21 23 24 24 23 25 27 28 28 28 31 29 29 28 30 31 31 32 32 33 32 37 39 40 42 45

GFSFLT1_700_spd_096.txt.gz
Wind_Speed
15 19 24 27 13 13 14 13 10 6 13 13 8 34 50 53 46 42 46 47 38 37 39 35 34 32 28 28 22 18 19 23
14 17 21 25 5 11 10 11 8 2 7 9 15 32 42 42 39 47 39 41 35 42 36 37 36 32 27 25 20 18 23 20
13 14 17 18 3 10 12 10 8 6 7 12 21 23 25 36 42 40 38 38 41 38 38 35 36 32 27 26 25 23 22 21
13 10 12 11 7 9 11 14 8 7 7 8 18 23 27 28 37 38 38 40 44 40 39 38 38 33 30 29 29 30 23 24
14 8 7 7 6 2 11 15 15 9 13 9 12 14 13 22 30 28 38 36 44 51 44 43 40 33 37 36 34 31 26 26
14 8 5 3 2 4 2 5 14 20 20 20 18 12 19 16 21 23 27 32 35 42 47 51 45 42 45 43 35 31 27 28
17 11 8 2 1 3 5 5 3 9 19 20 18 17 21 25 17 24 21 34 28 40 33 42 40 42 43 44 35 32 30 29
20 13 11 8 4 5 6 6 6 7 6 13 17 18 22 22 17 26 24 24 25 24 24 27 27 30 33 36 38 34 33 35
20 14 14 12 9 6 6 7 8 7 7 9 11 15 18 22 22 24 24 28 27 25 21 26 31 31 26 31 35 37 38 38
21 18 14 12 12 10 8 6 8 8 8 8 10 12 13 13 16 18 20 22 25 28 26 27 28 28 33 38 40 40 40 40
23 21 17 13 13 12 11 11 9 8 8 9 9 9 10 11 11 11 12 14 18 21 22 23 24 26 31 35 37 37 41 44
23 24 22 18 15 15 13 12 12 13 12 12 11 11 10 10 10 11 12 14 15 17 18 20 22 24 26 31 34 38 43 47
21 21 24 20 18 17 17 16 16 15 16 19 17 16 16 15 14 13 14 15 16 18 20 23 25 28 30 34 37 39 44 49
19 18 20 19 18 16 16 17 15 15 17 18 20 22 22 19 17 19 20 20 21 23 25 27 29 31 34 37 40 42 46 50
17 18 18 18 18 17 15 16 17 18 18 20 22 20 22 25 25 26 29 25 26 28 30 31 33 36 39 42 45 46 48 51
16 23 20 16 17 17 15 15 12 15 16 16 14 16 19 23 27 24 27 29 28 32 33 37 39 42 43 43 45 45 48 46
16 22 24 22 18 17 14 17 14 12 14 14 15 16 18 18 19 21 27 29 31 31 32 33 35 37 38 39 39 41 43 44
23 20 21 22 22 20 17 18 21 18 19 20 20 21 21 22 24 25 27 29 29 30 31 33 36 37 36 38 41 42 44 46
27 28 27 24 26 25 26 24 23 26 26 25 25 26 27 28 30 32 33 32 34 34 34 35 37 38 40 41 43 41 40 43

GFSFLT1_700_spd_099.txt.gz
Wind_Speed
20 18 20 24 27 23 14 16 17 16 16 20 30 35 37 38 47 51 41 47 38 44 48 43 37 37 34 29 24 20 18 15
19 18 19 22 24 14 8 9 12 15 12 8 19 35 40 39 45 51 42 44 50 41 47 33 39 36 32 27 24 23 22 18
19 17 16 18 19 13 10 7 5 12 14 9 6 8 22 41 50 44 39 40 45 47 40 36 38 37 34 29 27 24 24 21
22 18 14 15 13 13 9 10 8 10 6 5 3 13 13 33 45 45 45 31 44 48 35 37 35 38 33 30 27 24 25 23
23 17 12 12 9 9 8 11 9 9 4 7 8 24 23 21 24 28 35 47 41 40 35 40 42 40 35 32 30 30 29 28
20 16 11 9 7 5 5 4 6 10 7 6 12 13 28 25 27 31 36 30 36 33 39 46 52 37 41 38 37 37 39 35
19 17 13 8 6 3 2 2 2 5 13 15 14 12 12 13 16 28 28 30 32 30 29 42 44 38 42 42 45 46 44 34
20 19 15 10 7 3 1 1 3 5 1 10 14 15 15 19 21 21 27 28 27 32 31 39 38 46 48 50 44 40 37 38
20 20 16 13 11 6 4 3 3 5 8 3 7 16 16 23 21 15 20 24 27 31 26 30 33 28 36 38 32 31 38 37
18 19 18 14 12 10 7 4 3 4 6 7 6 7 11 13 20 22 16 22 19 20 25 23 22 21 26 28 29 29 32 37
19 20 20 15 11 13 12 9 7 5 6 7 7 7 8 9 11 13 16 19 22 23 24 25 24 22 22 26 28 29 32 35
20 20 23 19 13 14 12 11 10 9 8 8 8 9 10 9 8 9 10 11 13 14 15 17 19 20 21 25 29 30 32 35
20 23 25 23 18 13 13 13 12 11 12 13 13 13 13 13 13 12 12 11 12 13 14 16 19 20 22 23 25 27 30 33
18 22 23 25 22 17 16 17 17 17 17 16 17 18 17 15 15 15 15 14 15 16 16 18 20 21 24 27 29 31 33 36
11 20 21 21 23 19 18 17 17 17 16 18 20 19 20 20 20 19 19 19 17 17 18 22 24 26 29 32 34 36 39 41
10 16 17 19 22 22 21 19 17 18 19 19 21 22 21 21 22 24 24 24 24 26 25 25 26 31 35 38 39 41 41 41
11 14 21 23 23 22 22 20 18 15 12 15 16 17 18 19 18 20 24 24 24 25 27 30 32 35 33 34 35 39 41 41
18 15 17 21 25 23 23 21 20 18 15 14 16 16 16 17 18 20 21 24 29 31 32 33 34 34 32 33 34 36 39 41
22 20 20 23 23 24 24 23 21 25 23 21 22 23 23 24 25 27 28 30 32 33 33 33 35 36 33 34 37 38 40 42

GFSFLT1_700_spd_102.txt.gz
Wind_Speed
25 24 19 21 21 24 23 9 9 12 14 16 18 23 27 30 32 29 28 39 39 43 38 37 32 35 32 32 28 25 20 17
27 28 20 19 20 21 16 5 10 13 15 15 18 22 30 34 35 36 33 40 40 36 42 42 39 36 37 39 28 27 25 21
28 28 23 19 18 17 13 6 7 11 13 15 21 24 27 31 41 41 40 36 44 38 41 45 47 43 43 32 30 28 25 22
28 28 23 19 15 13 10 7 9 11 12 12 9 11 16 33 37 38 34 34 43 42 38 41 39 44 39 34 30 28 25 20
25 29 22 17 12 11 8 7 6 9 10 9 5 3 5 10 30 42 43 35 39 36 43 40 39 40 33 34 30 31 26 26
27 31 21 16 10 10 5 5 5 6 7 7 3 3 5 5 23 36 33 40 34 28 33 40 34 32 37 37 45 34 35 30
24 30 19 15 10 9 4 3 4 4 3 9 4 10 10 12 19 23 29 30 30 37 44 42 35 31 37 49 41 36 31 31
25 29 17 15 11 9 5 1 2 4 1 3 8 9 16 11 15 24 23 29 28 36 34 32 32 31 39 37 39 35 35 39
26 23 16 15 13 10 6 2 1 4 5 5 6 12 17 14 13 17 26 22 18 26 27 21 21 30 32 28 26 31 39 45
20 21 18 16 13 11 8 6 3 3 4 7 8 8 12 16 19 14 17 17 22 18 17 20 18 24 25 29 25 33 41 41
19 21 16 17 14 11 12 8 6 4 5 6 8 10 11 12 18 19 17 15 20 19 18 24 20 19 25 21 24 27 33 36
17 20 17 19 16 9 12 11 8 6 4 5 5 7 10 11 13 13 13 16 19 20 19 19 23 22 21 22 23 24 30 29
15 20 20 21 19 14 11 12 10 8 7 7 7 7 7 9 11 12 12 12 12 13 15 15 17 18 19 20 21 20 23 25
13 19 24 21 22 19 14 13 12 11 10 10 10 11 11 11 11 11 11 11 11 11 11 13 13 14 15 17 19 21 24 25
9 20 25 22 22 22 18 16 16 15 14 13 13 14 14 14 14 14 14 14 14 14 13 14 15 17 18 19 22 24 27 28
9 13 19 22 22 22 24 19 18 16 15 15 15 16 16 17 18 17 17 16 16 15 16 17 19 21 24 23 24 28 31 32
6 10 16 22 22 20 23 21 19 18 15 15 16 16 17 18 17 17 18 20 20 20 22 24 26 26 26 28 30 31 31 32
11 15 14 18 21 22 22 22 22 21 18 15 14 14 15 16 17 18 19 19 21 23 25 27 28 29 29 30 32 32 32 31
13 19 16 17 22 18 22 23 24 23 22 20 18 19 20 19 20 18 22 23 24 26 28 29 30 31 31 32 32 33 33 35

GFSFLT1_700_spd_105.txt.gz
Wind_Speed
26 25 23 24 21 22 24 20 5 8 10 12 15 19 17 17 22 26 25 35 35 34 35 33 32 36 34 34 32 28 24 22
27 28 23 23 22 23 22 16 3 8 10 11 13 17 20 25 28 30 32 35 38 39 40 36 34 37 37 35 34 30 28 26
30 30 24 20 20 22 20 14 7 7 10 12 13 17 20 22 28 34 35 33 31 40 42 40 39 39 38 37 36 33 29 29
28 28 23 20 20 20 18 13 7 8 9 13 16 21 26 34 35 37 40 39 35 40 43 43 39 40 40 35 38 32 31 30
26 26 21 22 22 17 15 12 8 7 10 14 13 18 19 22 30 43 45 43 35 39 40 44 42 38 42 39 33 35 30 28
32 29 29 27 21 17 12 9 8 6 8 13 12 13 16 15 26 42 49 46 41 44 42 42 37 40 42 38 40 42 35 35
32 32 28 27 18 16 10 7 6 6 6 11 9 9 9 8 22 32 39 38 35 41 44 47 33 37 40 40 40 41 40 44
28 33 31 20 17 15 9 5 4 4 4 6 7 6 9 6 12 26 31 32 36 35 44 34 26 33 42 36 41 45 44 39
26 28 24 22 17 15 10 5 2 2 2 4 5 8 9 7 12 14 17 23 21 39 31 37 33 35 24 28 39 36 41 34
20 20 19 17 16 13 10 7 4 0 1 3 5 7 11 10 9 19 23 21 22 24 30 29 31 20 24 24 30 27 28 28
20 18 15 15 18 13 12 11 7 4 3 3 6 8 9 11 14 11 18 21 18 17 22 18 15 18 19 20 22 25 21 20
25 18 9 13 19 15 11 13 9 7 5 4 6 6 8 8 12 15 15 16 20 21 21 19 18 14 15 17 17 19 22 24
26 19 12 14 20 18 10 14 12 10 8 6 4 5 6 8 10 11 11 13 18 19 18 18 21 22 20 19 17 18 21 21
24 23 13 9 17 20 16 13 14 11 9 7 6 5 6 7 8 10 11 11 11 11 12 14 15 16 16 16 17 18 18 19
18 22 17 18 14 22 21 18 15 14 11 9 9 8 9 10 10 10 11 11 11 12 13 12 13 13 13 15 18 20 20 25
4 10 24 18 20 18 25 23 18 16 14 12 11 10 11 13 14 13 13 13 13 14 14 15 16 17 20 20 21 22 24 25
9 15 16 30 18 17 19 26 23 18 16 14 14 14 13 13 14 16 16 15 17 19 20 20 20 21 20 22 23 25 26 26
15 11 19 21 32 12 17 19 24 22 20 18 15 15 15 16 16 17 19 19 18 20 22 23 24 24 23 24 24 27 31 34
19 14 21 17 24 27 13 18 22 23 23 21 19 16 17 19 20 20 20 19 21 21 22 24 24 26 26 27 29 31 31 30

GFSFLT1_700_spd_108.txt.gz
Wind_Speed
21 23 29 21 21 19 22 23 28 18 11 12 13 10 8 9 11 30 45 47 39 36 36 35 34 36 38 38 36 33 28 26
34 29 29 26 23 19 19 21 25 16 13 11 12 15 14 12 21 20 29 37 43 38 36 33 38 35 36 37 37 35 32 31
32 37 33 28 21 18 18 19 22 18 15 14 13 14 16 17 19 24 24 34 37 40 38 38 37 34 41 40 39 38 36 34
29 27 25 29 22 17 18 19 20 18 14 17 17 17 19 23 28 30 34 32 36 39 37 41 42 39 38 42 41 40 37 37
33 29 23 22 20 18 18 19 19 16 14 15 18 18 20 23 25 30 37 39 42 41 37 44 46 43 43 42 43 42 40 39
32 32 31 21 20 19 20 17 18 15 14 13 17 18 17 23 24 29 45 47 49 48 42 36 46 47 45 43 44 45 44 38
26 34 31 26 22 24 21 16 16 14 13 11 13 17 19 22 22 26 41 50 53 51 46 37 48 46 48 43 50 46 36 39
29 29 34 30 26 22 17 15 14 14 11 8 11 17 13 17 22 23 29 42 44 55 46 47 47 47 45 40 48 40 42 39
24 28 35 31 26 18 16 15 13 12 8 5 8 14 12 14 17 15 25 30 43 33 47 48 47 41 43 40 42 52 49 43
15 29 33 27 22 20 17 14 13 9 5 2 3 9 14 12 10 12 16 26 33 34 37 55 40 40 35 24 45 43 46 38
14 19 21 19 20 21 19 16 14 10 5 3 3 3 8 10 10 15 13 19 9 18 32 40 46 41 42 26 39 34 33 29
24 22 14 12 21 23 20 18 16 10 7 6 6 6 4 7 9 10 15 16 14 16 19 36 40 32 38 24 20 19 20 19
21 33 24 10 21 25 21 19 17 14 10 7 8 7 8 6 10 10 13 16 16 16 16 20 28 25 19 22 20 13 16 17
6 34 28 15 17 26 23 19 19 17 14 11 9 9 8 9 8 11 12 12 15 17 17 22 24 25 23 23 20 20 19 19
20 18 35 25 17 23 26 20 20 18 16 14 11 10 10 10 9 10 11 13 13 15 16 17 20 21 20 20 22 22 21 26
8 10 22 30 25 20 24 26 22 20 18 14 12 13 13 14 14 13 14 14 15 16 16 18 18 19 20 20 21 23 25 24
17 11 8 26 25 25 22 26 26 23 20 17 15 16 17 16 17 17 16 18 19 19 19 19 19 19 19 19 20 23 25 27
13 12 12 6 20 27 23 22 25 28 26 22 20 19 19 20 19 19 21 21 20 20 19 19 19 20 21 23 25 26 27 27
17 10 10 11 10 23 22 22 20 23 29 27 26 24 22 22 23 23 23 22 21 21 21 23 24 24 23 24 26 29 29 28

GFSFLT1_700_spd_111.txt.gz
Wind_Speed
23 27 22 18 19 26 28 28 25 24 25 21 17 20 14 8 11 19 35 45 40 48 49 48 46 43 42 40 39 35 31 29
25 26 27 22 24 26 26 27 23 22 24 19 18 20 14 5 6 18 40 45 40 46 48 45 43 43 42 41 39 37 37 33
24 25 32 32 27 28 24 26 22 20 23 18 19 18 13 10 8 8 25 35 42 50 47 45 43 42 44 42 41 40 39 34
28 27 21 23 27 27 25 24 21 19 22 18 18 19 17 17 18 19 14 31 38 39 41 42 42 41 41 40 40 41 39 38
24 23 25 24 18 24 26 24 19 19 21 18 16 18 18 16 20 21 23 23 38 46 45 43 41 42 41 40 41 40 39 41
27 25 21 23 24 22 26 24 18 19 19 17 17 18 19 19 21 22 24 28 37 36 45 43 45 45 44 41 43 44 42 41
29 32 27 25 29 28 27 25 18 19 18 17 17 18 21 23 23 26 28 31 38 40 43 46 47 48 48 45 42 44 44 42
31 37 31 23 28 32 29 22 20 18 17 16 17 19 21 23 24 26 30 33 40 47 45 48 48 41 49 48 46 45 45 48
31 35 26 22 30 33 30 20 19 17 15 15 16 18 19 20 19 21 28 32 38 49 50 53 49 47 40 53 50 46 48 48
24 30 24 22 30 34 27 19 19 17 14 13 12 15 14 15 13 17 18 23 31 43 48 50 57 43 43 48 48 45 45 45
25 27 29 26 29 33 26 21 20 16 14 10 10 10 10 13 12 11 10 11 22 24 35 45 54 50 45 43 43 39 31 45
10 17 18 28 31 33 25 24 21 17 13 9 7 7 7 9 10 7 13 12 7 13 32 28 40 48 40 44 43 35 21 34
6 8 12 23 31 32 26 25 20 17 15 10 8 7 6 8 6 8 7 11 11 14 13 20 26 36 38 41 40 37 34 36
4 8 24 30 32 31 29 27 22 19 16 13 10 8 8 9 10 9 9 10 12 10 11 18 27 34 36 24 28 26 18 18
8 10 26 27 35 31 28 29 25 22 19 16 12 10 9 10 11 11 11 8 7 10 11 14 15 19 36 29 25 26 26 23
4 11 13 32 31 26 27 28 27 26 23 19 14 12 11 11 10 12 14 14 12 12 13 16 20 23 26 27 26 29 29 30
11 8 7 26 27 23 23 27 28 28 27 24 20 16 15 14 13 12 13 15 17 17 16 17 17 18 22 25 27 26 26 27
14 7 14 17 18 22 25 27 28 29 29 28 25 22 19 18 17 18 18 16 16 16 17 18 19 21 23 24 26 26 28 29
18 19 9 13 10 20 11 17 25 26 29 31 29 26 25 24 23 21 21 20 20 19 19 20 21 22 24 25 27 27 27 28

GFSFLT1_700_spd_114.txt.gz
Wind_Speed
34 38 32 33 30 25 23 23 27 28 29 30 27 26 20 18 19 23 25 34 35 35 44 38 45 47 48 44 41 36 33 30
31 33 33 30 31 26 24 22 26 25 27 28 25 22 19 17 19 21 21 27 41 51 43 48 37 48 45 43 38 36 36 33
31 28 31 27 28 26 26 26 24 24 25 27 24 21 18 17 17 16 11 22 32 36 45 43 44 48 48 45 42 42 39 34
30 23 29 28 26 28 28 30 26 23 25 24 22 21 17 19 17 14 4 23 30 30 42 44 48 47 47 46 43 41 38 36
21 18 25 23 28 23 24 29 27 25 25 22 21 21 14 15 17 16 7 12 32 33 44 48 48 47 46 45 42 41 39 40
21 20 22 23 21 27 21 21 25 27 24 22 20 21 14 15 17 17 17 15 14 36 47 50 49 45 45 44 44 43 41 38
24 21 22 24 15 20 25 24 26 28 24 22 20 20 16 16 19 19 19 20 19 21 39 42 43 44 45 45 44 44 43 40
24 22 22 24 27 23 23 27 28 27 23 22 19 19 18 16 18 19 23 23 26 28 35 41 44 45 45 46 45 44 43 39
26 24 22 27 30 30 23 29 30 27 23 20 18 19 18 16 19 21 23 25 28 30 35 35 40 46 48 48 47 45 45 44
25 24 29 26 36 32 26 30 30 27 23 19 17 17 16 15 16 18 20 22 26 33 40 43 48 48 50 49 48 49 55 53
30 33 29 36 34 34 30 33 29 27 23 18 15 15 14 14 15 17 17 19 22 36 39 42 44 50 49 54 49 49 48 48
25 26 34 34 39 34 33 33 30 28 23 17 13 12 12 12 15 15 11 16 15 25 27 33 49 41 54 45 47 42 40 44
20 19 22 33 35 30 33 34 30 28 22 16 12 11 10 10 14 14 10 12 13 8 14 19 31 22 45 44 38 39 34 42
25 11 10 13 25 29 33 32 28 28 23 17 13 10 9 10 10 10 8 10 9 8 7 18 20 18 28 37 36 34 35 35
13 8 9 11 10 26 31 29 30 29 24 19 15 12 10 9 9 9 8 9 9 7 8 12 15 21 20 11 29 23 18 37
27 20 5 4 10 14 27 30 32 30 27 23 19 16 13 11 10 9 9 10 11 12 10 10 12 13 15 16 28 22 27 27
29 26 8 3 7 14 27 28 31 33 30 26 23 18 16 14 12 12 10 9 8 9 10 13 13 17 18 26 28 22 24 28
24 25 22 11 8 19 28 32 30 33 32 29 26 23 20 17 16 16 15 13 12 10 10 11 14 16 22 27 27 29 27 30
23 19 23 16 11 16 20 34 35 32 31 32 29 25 24 21 20 18 17 17 16 15 14 15 15 17 19 22 24 26 27 28

GFSFLT1_700_spd_117.txt.gz
Wind_Speed
29 34 35 36 36 37 32 33 32 26 28 29 31 28 28 32 26 23 24 25 27 32 39 33 36 37 40 40 38 40 38 35
28 29 31 32 32 33 30 33 28 29 26 25 27 26 27 31 24 22 26 27 31 34 43 36 42 45 43 43 44 44 43 39
25 26 30 30 29 26 31 33 29 27 25 22 25 26 26 28 23 22 24 27 30 36 37 47 42 44 48 46 47 47 44 40
22 22 24 24 24 26 28 28 26 27 25 22 25 25 25 25 20 18 23 20 18 27 39 43 41 43 48 49 51 49 45 42
16 15 21 22 23 25 28 29 30 28 27 24 25 24 26 21 18 16 21 16 14 17 38 40 44 42 47 51 49 45 43 40
19 20 21 23 20 22 30 25 26 25 25 26 24 24 26 19 18 17 20 16 7 15 26 37 44 45 46 50 47 46 41 41
23 21 16 16 22 16 24 30 26 22 23 24 22 24 25 19 17 17 19 18 12 13 22 25 38 40 47 45 43 43 42 41
24 24 19 14 15 25 19 20 26 23 25 24 22 23 25 19 17 18 19 21 19 16 22 39 41 46 44 43 43 43 42 42
22 23 25 22 18 24 29 25 19 26 28 24 22 23 24 18 17 17 19 20 19 22 18 24 41 46 48 44 43 43 43 43
24 27 30 29 23 26 29 32 25 28 29 25 23 21 23 17 16 16 18 20 21 20 27 27 31 45 43 48 45 45 45 44
28 28 33 33 27 28 28 34 37 32 30 26 23 21 22 17 16 15 15 19 23 24 29 34 36 41 38 41 46 46 45 46
32 33 30 31 29 29 30 32 35 35 33 28 25 22 21 17 14 14 15 18 22 24 25 34 37 43 50 46 47 49 51 53
26 29 35 28 29 31 27 32 32 33 32 27 25 22 20 16 13 14 15 15 20 22 20 21 32 44 43 46 54 53 54 54
35 34 39 27 27 25 26 28 34 36 32 27 26 21 18 14 13 15 15 16 18 19 14 17 25 28 43 46 41 44 46 46
29 33 35 24 22 15 21 26 34 36 31 26 25 21 19 15 15 14 14 15 18 18 14 10 12 15 18 20 17 37 35 33
24 32 33 24 10 11 13 24 31 32 30 26 26 22 21 17 15 15 13 12 12 12 11 12 13 12 23 19 20 28 31 30
20 29 25 10 4 5 13 21 31 32 30 27 28 25 23 19 17 17 15 13 11 10 9 10 17 13 20 17 5 19 20 22
19 26 24 25 18 4 12 21 33 32 27 30 31 27 23 20 18 18 16 14 12 10 9 8 10 15 13 9 13 27 22 18
20 18 18 22 30 20 14 18 31 35 30 32 33 30 26 23 21 18 17 16 14 12 11 10 10 13 16 19 21 19 18 19

GFSFLT1_700_spd_120.txt.gz
Wind_Speed
17 26 31 34 35 35 35 36 35 34 36 32 32 32 29 30 29 28 28 27 27 30 31 34 33 32 40 35 40 40 38 38
24 28 31 32 33 35 33 32 31 33 34 29 28 27 28 25 29 30 27 28 27 30 33 34 37 36 39 42 41 36 43 41
22 25 27 29 28 30 31 29 29 31 33 29 29 27 24 25 29 30 27 26 26 30 34 39 38 33 36 47 44 42 46 46
18 19 21 23 25 25 25 26 27 31 32 30 29 25 27 25 24 27 26 23 24 28 34 38 42 42 41 47 45 45 50 47
15 16 15 19 23 22 22 27 29 31 28 26 24 23 23 22 25 26 28 25 24 25 31 30 41 44 43 51 48 47 51 48
13 16 17 17 21 20 22 28 30 26 29 27 26 25 23 22 24 26 27 22 23 23 24 24 35 44 48 48 55 51 49 46
14 16 15 16 19 17 22 23 25 27 26 27 28 27 23 22 24 25 26 21 22 20 19 15 25 35 40 43 50 52 49 47
16 19 18 15 17 18 21 24 18 26 26 27 29 26 22 22 24 23 25 21 21 19 16 16 20 32 39 42 46 51 47 47
19 20 21 21 18 18 22 26 23 20 29 28 28 25 23 24 23 23 23 21 21 19 17 13 20 22 40 43 42 48 46 44
18 25 25 23 23 21 22 26 23 24 24 30 29 27 25 24 24 23 22 21 20 19 21 18 17 27 35 40 47 47 44 44
22 24 25 25 25 26 24 27 28 25 27 27 27 27 28 25 25 24 20 20 20 19 21 22 23 21 32 42 49 45 46 47
21 26 25 29 25 28 28 27 29 29 25 29 26 31 29 25 24 23 18 19 20 21 21 23 26 30 30 36 43 47 50 47
24 30 30 30 33 28 30 29 29 32 28 29 27 32 29 24 23 22 18 20 20 22 25 27 26 29 35 43 46 44 52 49
25 28 28 31 31 31 30 29 25 29 32 31 31 35 30 23 22 22 18 22 21 19 21 25 25 32 39 35 45 45 42 50
24 26 21 26 30 29 31 25 25 29 31 30 37 32 28 23 23 23 20 22 19 19 21 23 23 28 29 33 36 49 49 50
23 23 18 22 26 26 28 24 21 28 27 32 38 33 28 25 24 23 21 19 15 16 20 22 23 22 24 27 21 37 41 37
20 18 16 20 24 26 22 26 19 25 26 36 36 33 29 26 24 24 21 18 15 14 17 16 17 18 12 19 11 19 24 31
19 16 16 17 19 25 17 26 14 23 28 35 35 32 31 27 25 25 23 19 16 14 13 11 14 13 11 15 14 7 17 18
20 19 19 21 21 24 23 20 10 24 32 32 33 34 33 28 27 26 25 22 18 15 12 10 9 10 15 15 11 16 17 16

GFSFLT1_700_spd_123.txt.gz
Wind_Speed
17 17 24 28 31 32 32 32 33 35 35 36 40 38 32 30 33 31 27 27 30 31 30 28 29 30 31 32 31 30 35 31
15 16 19 28 29 30 30 30 31 33 35 35 36 35 28 29 30 31 26 27 29 31 31 29 29 34 33 31 28 38 40 34
16 15 15 23 26 28 28 29 30 30 32 32 36 31 27 28 29 27 27 26 28 30 30 30 30 29 33 31 42 43 42 39
15 12 13 22 26 25 26 27 28 26 30 32 32 29 29 31 29 28 25 24 28 31 30 31 29 32 35 37 38 43 41 47
10 9 11 18 23 23 24 23 24 27 27 29 28 29 31 31 28 24 25 24 26 29 31 31 30 31 37 40 41 36 46 47
7 8 10 15 21 22 22 22 24 27 27 30 28 29 30 29 29 28 25 24 25 27 30 29 27 32 39 35 33 39 55 44
6 8 10 12 16 20 21 20 23 25 27 30 30 30 30 31 30 26 25 24 24 27 29 24 26 29 38 36 41 45 57 45
4 7 12 16 17 18 21 21 23 24 24 29 30 34 34 34 29 28 25 24 24 27 25 22 24 25 24 33 39 31 48 49
5 9 16 18 19 19 20 22 24 25 24 27 30 34 35 33 29 26 26 26 24 27 24 22 23 23 26 30 36 45 49 54
7 14 21 20 18 20 20 23 25 26 27 25 29 33 33 32 29 25 25 27 26 26 23 23 21 18 18 28 27 35 51 52
10 12 13 17 17 18 19 23 25 26 29 28 27 32 33 31 31 26 25 25 27 26 22 22 23 20 16 18 27 38 42 50
14 22 23 23 22 21 19 23 25 28 26 31 31 28 32 34 33 27 25 25 26 26 21 22 21 21 19 19 27 30 41 51
13 16 15 17 25 26 25 22 27 27 27 30 33 34 28 34 31 28 25 25 26 24 22 22 21 23 20 21 23 27 39 52
14 15 17 17 24 24 24 26 27 25 29 30 33 34 31 36 34 32 26 25 26 23 22 22 25 25 25 25 23 28 33 48
16 15 15 16 27 24 22 24 27 25 29 29 31 35 34 38 35 31 27 25 25 23 23 21 25 27 24 25 27 37 38 43
15 13 16 22 26 21 21 23 31 22 24 25 30 33 35 39 36 32 27 26 25 23 23 23 25 23 24 24 27 32 42 41
14 19 21 21 26 23 21 22 26 25 23 26 29 32 35 37 36 33 28 26 25 24 22 21 19 22 24 24 27 30 32 43
21 29 25 24 28 26 24 22 23 27 28 26 30 34 36 36 37 33 30 27 24 23 18 17 16 18 19 17 19 24 20 16
25 26 26 28 29 27 27 24 24 24 29 29 31 34 29 37 38 33 30 27 24 23 18 17 13 15 19 14 12 11 20 16